Observation data for Claude 12 Southwest on 11/16/2019      Previous  Date       Current Mesonet Observations  Soil Data  Daily Summary Page  Observations in Plain Language
KCL1 160600Z 18007KT 08/M02 A3016 RMK A01 T00811022  RH  048%=      5-min Rain = 0
KCL1 160601Z 17008KT 08/M02 A3015 RMK A01 T00821021  RH  048%=      5-min Rain = 0
KCL1 160602Z 18007KT 08/M02 A3015 RMK A01 T00811022  RH  048%=      5-min Rain = 0
KCL1 160603Z 18008KT 08/M02 A3015 RMK A01 T00801022  RH  048%=      5-min Rain = 0
KCL1 160604Z 18007KT 08/M02 A3015 RMK A01 T00801022  RH  049%=      5-min Rain = 0
KCL1 160605Z 18006KT 08/M02 A3015 RMK A01 T00791022  RH  049%=      5-min Rain = 0
KCL1 160606Z 18007KT 08/M02 A3015 RMK A01 T00791022  RH  049%=      5-min Rain = 0
KCL1 160607Z 18009KT 08/M02 A3015 RMK A01 T00781022  RH  049%=      5-min Rain = 0
KCL1 160608Z 19013KT 08/M02 A3015 RMK A01 T00791022  RH  049%=      5-min Rain = 0
KCL1 160609Z 18012KT 08/M02 A3015 RMK A01 T00821021  RH  048%=      5-min Rain = 0
KCL1 160610Z 19013KT 09/M02 A3015 RMK A01 T00851021  RH  047%=      5-min Rain = 0
KCL1 160611Z 19009KT 09/M02 A3015 RMK A01 T00861021  RH  047%=      5-min Rain = 0
KCL1 160612Z 19011KT 09/M02 A3015 RMK A01 T00861022  RH  047%=      5-min Rain = 0
KCL1 160613Z 20009KT 09/M02 A3015 RMK A01 T00851022  RH  047%=      5-min Rain = 0
KCL1 160614Z 18008KT 09/M02 A3015 RMK A01 T00851022  RH  047%=      5-min Rain = 0
KCL1 160615Z 19008KT 09/M02 A3015 RMK A01 T00851022  RH  047%=      5-min Rain = 0
KCL1 160616Z 19007KT 08/M02 A3015 RMK A01 T00841022  RH  047%=      5-min Rain = 0
KCL1 160617Z 19008KT 08/M02 A3015 RMK A01 T00841022  RH  047%=      5-min Rain = 0
KCL1 160618Z 19007KT 08/M02 A3015 RMK A01 T00821023  RH  047%=      5-min Rain = 0
KCL1 160619Z 19010KT 08/M02 A3015 RMK A01 T00821022  RH  048%=      5-min Rain = 0
KCL1 160620Z 18009KT 08/M02 A3015 RMK A01 T00821022  RH  048%=      5-min Rain = 0
KCL1 160621Z 19009KT 08/M02 A3015 RMK A01 T00831022  RH  048%=      5-min Rain = 0
KCL1 160622Z 19009KT 08/M02 A3015 RMK A01 T00831022  RH  048%=      5-min Rain = 0
KCL1 160623Z 19008KT 08/M02 A3015 RMK A01 T00821023  RH  048%=      5-min Rain = 0
KCL1 160624Z 19009KT 08/M02 A3015 RMK A01 T00821023  RH  048%=      5-min Rain = 0
KCL1 160625Z 19009KT 08/M02 A3015 RMK A01 T00821023  RH  048%=      5-min Rain = 0
KCL1 160626Z 19011KT 08/M02 A3015 RMK A01 T00831022  RH  047%=      5-min Rain = 0
KCL1 160627Z 20010KT 09/M02 A3015 RMK A01 T00851022  RH  047%=      5-min Rain = 0
KCL1 160628Z 19011KT 09/M02 A3015 RMK A01 T00851022  RH  047%=      5-min Rain = 0
KCL1 160629Z 19011KT 09/M02 A3015 RMK A01 T00861022  RH  046%=      5-min Rain = 0
KCL1 160630Z 19014KT 09/M02 A3015 RMK A01 T00861022  RH  046%=      5-min Rain = 0
KCL1 160631Z 19011KT 09/M02 A3015 RMK A01 T00871022  RH  046%=      5-min Rain = 0
KCL1 160632Z 20010KT 09/M02 A3015 RMK A01 T00881022  RH  046%=      5-min Rain = 0
KCL1 160633Z 20012G17KT 09/M02 A3015 RMK A01 T00881022  RH  046%=      5-min Rain = 0
KCL1 160634Z 20013KT 09/M02 A3015 RMK A01 T00881022  RH  046%=      5-min Rain = 0
KCL1 160635Z 20011KT 09/M02 A3015 RMK A01 T00881022  RH  046%=      5-min Rain = 0
KCL1 160636Z 20009KT 09/M02 A3015 RMK A01 T00891022  RH  046%=      5-min Rain = 0
KCL1 160637Z 20011G19KT 09/M02 A3014 RMK A01 T00881023  RH  046%=      5-min Rain = 0
KCL1 160638Z 20011G16KT 09/M02 A3014 RMK A01 T00871023  RH  046%=      5-min Rain = 0
KCL1 160639Z 20014KT 09/M02 A3014 RMK A01 T00881023  RH  046%=      5-min Rain = 0
KCL1 160640Z 19012KT 09/M02 A3014 RMK A01 T00891022  RH  046%=      5-min Rain = 0
KCL1 160641Z 20013KT 09/M02 A3014 RMK A01 T00891022  RH  045%=      5-min Rain = 0
KCL1 160642Z 20014KT 09/M02 A3014 RMK A01 T00891022  RH  045%=      5-min Rain = 0
KCL1 160643Z 20012G17KT 09/M02 A3014 RMK A01 T00891023  RH  045%=      5-min Rain = 0
KCL1 160644Z 20014G19KT 09/M02 A3014 RMK A01 T00891022  RH  045%=      5-min Rain = 0
KCL1 160645Z 20011KT 09/M02 A3014 RMK A01 T00891022  RH  045%=      5-min Rain = 0
KCL1 160646Z 20009KT 09/M02 A3014 RMK A01 T00891023  RH  045%=      5-min Rain = 0
KCL1 160647Z 20009KT 09/M02 A3014 RMK A01 T00891022  RH  045%=      5-min Rain = 0
KCL1 160648Z 20008KT 09/M02 A3014 RMK A01 T00881023  RH  046%=      5-min Rain = 0
KCL1 160649Z 20009KT 09/M02 A3014 RMK A01 T00871023  RH  046%=      5-min Rain = 0
KCL1 160650Z 20008KT 09/M02 A3014 RMK A01 T00871023  RH  046%=      5-min Rain = 0
KCL1 160651Z 20007KT 09/M02 A3014 RMK A01 T00871023  RH  046%=      5-min Rain = 0
KCL1 160652Z 21009KT 09/M02 A3014 RMK A01 T00871023  RH  046%=      5-min Rain = 0
KCL1 160653Z 20009KT 09/M02 A3014 RMK A01 T00871023  RH  046%=      5-min Rain = 0
KCL1 160654Z 21008KT 09/M02 A3014 RMK A01 T00861023  RH  046%=      5-min Rain = 0
KCL1 160655Z 20011G16KT 09/M02 A3014 RMK A01 T00861023  RH  046%=      5-min Rain = 0
KCL1 160656Z 21009KT 09/M02 A3014 RMK A01 T00871022  RH  046%=      5-min Rain = 0
KCL1 160657Z 22009KT 09/M02 A3014 RMK A01 T00881022  RH  046%=      5-min Rain = 0
KCL1 160658Z 22011KT 09/M02 A3014 RMK A01 T00881022  RH  046%=      5-min Rain = 0
KCL1 160659Z 21009KT 09/M02 A3014 RMK A01 T00871022  RH  046%=      5-min Rain = 0
KCL1 160700Z 21010KT 09/M02 A3014 RMK A01 T00871022  RH  046%=      5-min Rain = 0
KCL1 160701Z 21009G14KT 09/M02 A3014 RMK A01 T00881022  RH  046%=      5-min Rain = 0
KCL1 160702Z 22010KT 09/M02 A3014 RMK A01 T00871022  RH  046%=      5-min Rain = 0
KCL1 160703Z 21007KT 09/M02 A3014 RMK A01 T00871022  RH  046%=      5-min Rain = 0
KCL1 160704Z 21008KT 09/M02 A3014 RMK A01 T00871022  RH  046%=      5-min Rain = 0
KCL1 160705Z 21008KT 09/M02 A3014 RMK A01 T00861023  RH  046%=      5-min Rain = 0
KCL1 160706Z 21007KT 09/M02 A3014 RMK A01 T00861022  RH  046%=      5-min Rain = 0
KCL1 160707Z 21009KT 09/M02 A3014 RMK A01 T00861022  RH  046%=      5-min Rain = 0
KCL1 160708Z 21009KT 09/M02 A3014 RMK A01 T00851023  RH  047%=      5-min Rain = 0
KCL1 160709Z 21009KT 09/M02 A3014 RMK A01 T00851023  RH  047%=      5-min Rain = 0
KCL1 160710Z 21008KT 09/M02 A3014 RMK A01 T00851023  RH  047%=      5-min Rain = 0
KCL1 160711Z 21009KT 09/M02 A3014 RMK A01 T00851022  RH  047%=      5-min Rain = 0
KCL1 160712Z 21009KT 08/M02 A3014 RMK A01 T00841023  RH  047%=      5-min Rain = 0
KCL1 160713Z 22008KT 09/M02 A3014 RMK A01 T00851022  RH  047%=      5-min Rain = 0
KCL1 160714Z 20007KT 09/M02 A3014 RMK A01 T00851022  RH  047%=      5-min Rain = 0
KCL1 160715Z 20008KT 08/M02 A3014 RMK A01 T00841022  RH  047%=      5-min Rain = 0
KCL1 160716Z 20008KT 08/M02 A3014 RMK A01 T00841022  RH  047%=      5-min Rain = 0
KCL1 160717Z 20007KT 08/M02 A3014 RMK A01 T00841022  RH  047%=      5-min Rain = 0
KCL1 160718Z 20008KT 08/M02 A3013 RMK A01 T00841022  RH  047%=      5-min Rain = 0
KCL1 160719Z 20008KT 08/M02 A3013 RMK A01 T00841022  RH  047%=      5-min Rain = 0
KCL1 160720Z 21007KT 08/M02 A3013 RMK A01 T00841022  RH  047%=      5-min Rain = 0
KCL1 160721Z 20007KT 08/M02 A3013 RMK A01 T00831022  RH  047%=      5-min Rain = 0
KCL1 160722Z 21008KT 08/M02 A3013 RMK A01 T00821022  RH  048%=      5-min Rain = 0
KCL1 160723Z 20007KT 08/M02 A3013 RMK A01 T00821022  RH  048%=      5-min Rain = 0
KCL1 160724Z 21008KT 08/M02 A3013 RMK A01 T00831022  RH  048%=      5-min Rain = 0
KCL1 160725Z 21007KT 08/M02 A3013 RMK A01 T00841022  RH  047%=      5-min Rain = 0
KCL1 160726Z 21009KT 08/M02 A3013 RMK A01 T00841022  RH  047%=      5-min Rain = 0
KCL1 160727Z 20010KT 08/M02 A3013 RMK A01 T00841021  RH  047%=      5-min Rain = 0
KCL1 160728Z 21009KT 09/M02 A3013 RMK A01 T00851021  RH  047%=      5-min Rain = 0
KCL1 160729Z 20009KT 09/M02 A3013 RMK A01 T00851021  RH  047%=      5-min Rain = 0
KCL1 160730Z 20010KT 09/M02 A3013 RMK A01 T00851021  RH  047%=      5-min Rain = 0
KCL1 160731Z 20007KT 09/M02 A3013 RMK A01 T00871021  RH  047%=      5-min Rain = 0
KCL1 160732Z 21011KT 09/M02 A3013 RMK A01 T00871020  RH  047%=      5-min Rain = 0
KCL1 160733Z 20009KT 09/M02 A3013 RMK A01 T00861021  RH  047%=      5-min Rain = 0
KCL1 160734Z 22010KT 09/M02 A3013 RMK A01 T00861021  RH  047%=      5-min Rain = 0
KCL1 160735Z 21008KT 09/M02 A3013 RMK A01 T00861021  RH  047%=      5-min Rain = 0
KCL1 160736Z 21011KT 09/M02 A3013 RMK A01 T00871021  RH  047%=      5-min Rain = 0
KCL1 160737Z 21010KT 09/M02 A3013 RMK A01 T00861021  RH  047%=      5-min Rain = 0
KCL1 160738Z 21011KT 09/M02 A3013 RMK A01 T00861021  RH  047%=      5-min Rain = 0
KCL1 160739Z 22010KT 09/M02 A3013 RMK A01 T00871021  RH  047%=      5-min Rain = 0
KCL1 160740Z 21009KT 09/M02 A3013 RMK A01 T00871021  RH  047%=      5-min Rain = 0
KCL1 160741Z 21010KT 09/M02 A3013 RMK A01 T00871020  RH  047%=      5-min Rain = 0
KCL1 160742Z 21010KT 09/M02 A3013 RMK A01 T00871020  RH  047%=      5-min Rain = 0
KCL1 160743Z 21011KT 09/M02 A3013 RMK A01 T00861021  RH  047%=      5-min Rain = 0
KCL1 160744Z 21009KT 09/M02 A3013 RMK A01 T00871020  RH  047%=      5-min Rain = 0
KCL1 160745Z 21009KT 09/M02 A3013 RMK A01 T00871021  RH  047%=      5-min Rain = 0
KCL1 160746Z 21010KT 09/M02 A3013 RMK A01 T00871020  RH  047%=      5-min Rain = 0
KCL1 160747Z 21010KT 09/M02 A3012 RMK A01 T00871020  RH  047%=      5-min Rain = 0
KCL1 160748Z 21010KT 09/M02 A3013 RMK A01 T00871020  RH  047%=      5-min Rain = 0
KCL1 160749Z 21009KT 09/M02 A3012 RMK A01 T00871020  RH  047%=      5-min Rain = 0
KCL1 160750Z 21012KT 09/M02 A3012 RMK A01 T00871020  RH  047%=      5-min Rain = 0
KCL1 160751Z 21011KT 09/M02 A3012 RMK A01 T00871020  RH  047%=      5-min Rain = 0
KCL1 160752Z 21009KT 09/M02 A3012 RMK A01 T00881020  RH  047%=      5-min Rain = 0
KCL1 160753Z 19011KT 09/M02 A3012 RMK A01 T00881020  RH  047%=      5-min Rain = 0
KCL1 160754Z 20010KT 09/M02 A3012 RMK A01 T00881020  RH  047%=      5-min Rain = 0
KCL1 160755Z 20010G15KT 09/M02 A3012 RMK A01 T00881020  RH  046%=      5-min Rain = 0
KCL1 160756Z 19013G19KT 09/M02 A3012 RMK A01 T00881020  RH  046%=      5-min Rain = 0
KCL1 160757Z 20013G19KT 09/M02 A3012 RMK A01 T00891020  RH  046%=      5-min Rain = 0
KCL1 160758Z 20011KT 09/M02 A3012 RMK A01 T00891020  RH  046%=      5-min Rain = 0
KCL1 160759Z 22009G14KT 09/M02 A3012 RMK A01 T00891020  RH  046%=      5-min Rain = 0
KCL1 160800Z 21012KT 09/M02 A3012 RMK A01 T00881020  RH  046%=      5-min Rain = 0
KCL1 160801Z 21013KT 09/M02 A3012 RMK A01 T00881021  RH  046%=      5-min Rain = 0
KCL1 160802Z 21012KT 09/M02 A3012 RMK A01 T00881021  RH  046%=      5-min Rain = 0
KCL1 160803Z 21010KT 09/M02 A3012 RMK A01 T00891021  RH  046%=      5-min Rain = 0
KCL1 160804Z 21008KT 09/M02 A3012 RMK A01 T00881021  RH  046%=      5-min Rain = 0
KCL1 160805Z 20009KT 09/M02 A3012 RMK A01 T00881021  RH  047%=      5-min Rain = 0
KCL1 160806Z 20013KT 09/M02 A3012 RMK A01 T00881021  RH  047%=      5-min Rain = 0
KCL1 160807Z 21013KT 09/M02 A3012 RMK A01 T00881020  RH  046%=      5-min Rain = 0
KCL1 160808Z 20014KT 09/M02 A3012 RMK A01 T00891020  RH  046%=      5-min Rain = 0
KCL1 160809Z 20011KT 09/M02 A3012 RMK A01 T00891020  RH  046%=      5-min Rain = 0
KCL1 160810Z 20010KT 09/M02 A3012 RMK A01 T00891020  RH  046%=      5-min Rain = 0
KCL1 160811Z 21011KT 09/M02 A3012 RMK A01 T00891020  RH  046%=      5-min Rain = 0
KCL1 160812Z 20011KT 09/M02 A3012 RMK A01 T00891020  RH  046%=      5-min Rain = 0
KCL1 160813Z 21008KT 09/M02 A3012 RMK A01 T00881020  RH  046%=      5-min Rain = 0
KCL1 160814Z 20011KT 09/M02 A3012 RMK A01 T00881020  RH  046%=      5-min Rain = 0
KCL1 160815Z 20012KT 09/M02 A3012 RMK A01 T00881020  RH  046%=      5-min Rain = 0
KCL1 160816Z 20010KT 09/M02 A3012 RMK A01 T00881020  RH  046%=      5-min Rain = 0
KCL1 160817Z 21010KT 09/M02 A3012 RMK A01 T00881020  RH  046%=      5-min Rain = 0
KCL1 160818Z 20010KT 09/M02 A3012 RMK A01 T00881020  RH  046%=      5-min Rain = 0
KCL1 160819Z 20012G18KT 09/M02 A3012 RMK A01 T00881020  RH  046%=      5-min Rain = 0
KCL1 160820Z 21013KT 09/M02 A3012 RMK A01 T00891020  RH  046%=      5-min Rain = 0
KCL1 160821Z 20012KT 09/M02 A3012 RMK A01 T00891020  RH  046%=      5-min Rain = 0
KCL1 160822Z 20014KT 09/M02 A3012 RMK A01 T00891020  RH  046%=      5-min Rain = 0
KCL1 160823Z 20011KT 09/M02 A3012 RMK A01 T00891020  RH  046%=      5-min Rain = 0
KCL1 160824Z 20011KT 09/M02 A3012 RMK A01 T00901020  RH  046%=      5-min Rain = 0
KCL1 160825Z 20011KT 09/M02 A3012 RMK A01 T00891020  RH  046%=      5-min Rain = 0
KCL1 160826Z 21010KT 09/M02 A3012 RMK A01 T00891020  RH  046%=      5-min Rain = 0
KCL1 160827Z 21011KT 09/M02 A3012 RMK A01 T00891020  RH  046%=      5-min Rain = 0
KCL1 160828Z 20010KT 09/M02 A3012 RMK A01 T00891020  RH  046%=      5-min Rain = 0
KCL1 160829Z 21012KT 09/M02 A3012 RMK A01 T00891020  RH  046%=      5-min Rain = 0
KCL1 160830Z 20010KT 09/M02 A3012 RMK A01 T00891020  RH  046%=      5-min Rain = 0
KCL1 160831Z 21010KT 09/M02 A3012 RMK A01 T00891020  RH  046%=      5-min Rain = 0
KCL1 160832Z 21009KT 09/M02 A3012 RMK A01 T00891019  RH  046%=      5-min Rain = 0
KCL1 160833Z 19012KT 09/M02 A3012 RMK A01 T00891020  RH  046%=      5-min Rain = 0
KCL1 160834Z 22009KT 09/M02 A3012 RMK A01 T00891020  RH  047%=      5-min Rain = 0
KCL1 160835Z 21008KT 09/M02 A3012 RMK A01 T00881020  RH  047%=      5-min Rain = 0
KCL1 160836Z 20009KT 09/M02 A3012 RMK A01 T00871020  RH  047%=      5-min Rain = 0
KCL1 160837Z 20011KT 09/M02 A3012 RMK A01 T00871020  RH  047%=      5-min Rain = 0
KCL1 160838Z 21011KT 09/M02 A3012 RMK A01 T00871020  RH  047%=      5-min Rain = 0
KCL1 160839Z 21012KT 09/M02 A3012 RMK A01 T00871020  RH  047%=      5-min Rain = 0
KCL1 160840Z 22011KT 09/M02 A3012 RMK A01 T00871020  RH  047%=      5-min Rain = 0
KCL1 160841Z 21011KT 09/M02 A3011 RMK A01 T00871020  RH  047%=      5-min Rain = 0
KCL1 160842Z 21008KT 09/M02 A3011 RMK A01 T00871020  RH  047%=      5-min Rain = 0
KCL1 160843Z 20008KT 09/M02 A3011 RMK A01 T00871020  RH  047%=      5-min Rain = 0
KCL1 160844Z 20012KT 09/M02 A3011 RMK A01 T00871020  RH  047%=      5-min Rain = 0
KCL1 160845Z 20011KT 09/M02 A3011 RMK A01 T00871020  RH  047%=      5-min Rain = 0
KCL1 160846Z 21009KT 09/M02 A3011 RMK A01 T00871020  RH  047%=      5-min Rain = 0
KCL1 160847Z 20008KT 09/M02 A3011 RMK A01 T00861020  RH  047%=      5-min Rain = 0
KCL1 160848Z 20009KT 09/M02 A3011 RMK A01 T00861020  RH  047%=      5-min Rain = 0
KCL1 160849Z 21009KT 09/M02 A3011 RMK A01 T00861020  RH  047%=      5-min Rain = 0
KCL1 160850Z 20009KT 09/M02 A3011 RMK A01 T00861020  RH  047%=      5-min Rain = 0
KCL1 160851Z 20011KT 09/M02 A3011 RMK A01 T00861021  RH  047%=      5-min Rain = 0
KCL1 160852Z 21009KT 09/M02 A3011 RMK A01 T00861020  RH  047%=      5-min Rain = 0
KCL1 160853Z 21009KT 09/M02 A3011 RMK A01 T00871020  RH  047%=      5-min Rain = 0
KCL1 160854Z 21008KT 09/M02 A3011 RMK A01 T00861021  RH  047%=      5-min Rain = 0
KCL1 160855Z 21009KT 09/M02 A3011 RMK A01 T00871020  RH  047%=      5-min Rain = 0
KCL1 160856Z 20011KT 09/M02 A3011 RMK A01 T00861021  RH  047%=      5-min Rain = 0
KCL1 160857Z 20010KT 09/M02 A3011 RMK A01 T00871020  RH  047%=      5-min Rain = 0
KCL1 160858Z 21009KT 09/M02 A3011 RMK A01 T00871020  RH  047%=      5-min Rain = 0
KCL1 160859Z 21011KT 09/M02 A3011 RMK A01 T00871020  RH  047%=      5-min Rain = 0
KCL1 160900Z 20010KT 09/M02 A3011 RMK A01 T00871020  RH  047%=      5-min Rain = 0
KCL1 160901Z 21010KT 09/M02 A3011 RMK A01 T00871020  RH  047%=      5-min Rain = 0
KCL1 160902Z 21010KT 09/M02 A3011 RMK A01 T00871021  RH  047%=      5-min Rain = 0
KCL1 160903Z 21010KT 09/M02 A3011 RMK A01 T00881020  RH  047%=      5-min Rain = 0
KCL1 160904Z 19008KT 09/M02 A3011 RMK A01 T00881021  RH  047%=      5-min Rain = 0
KCL1 160905Z 19010KT 09/M02 A3011 RMK A01 T00871020  RH  047%=      5-min Rain = 0
KCL1 160906Z 20010KT 09/M02 A3011 RMK A01 T00861020  RH  047%=      5-min Rain = 0
KCL1 160907Z 20007KT 09/M02 A3011 RMK A01 T00871020  RH  047%=      5-min Rain = 0
KCL1 160908Z 20008KT 09/M02 A3011 RMK A01 T00861020  RH  047%=      5-min Rain = 0
KCL1 160909Z 21008KT 09/M02 A3011 RMK A01 T00861020  RH  047%=      5-min Rain = 0
KCL1 160910Z 20007KT 09/M02 A3011 RMK A01 T00861020  RH  048%=      5-min Rain = 0
KCL1 160911Z 20008KT 09/M02 A3011 RMK A01 T00851020  RH  047%=      5-min Rain = 0
KCL1 160912Z 20009KT 09/M02 A3011 RMK A01 T00861020  RH  047%=      5-min Rain = 0
KCL1 160913Z 20006KT 09/M02 A3011 RMK A01 T00861020  RH  048%=      5-min Rain = 0
KCL1 160914Z 20007KT 09/M02 A3011 RMK A01 T00851020  RH  048%=      5-min Rain = 0
KCL1 160915Z 21010KT 09/M02 A3011 RMK A01 T00851019  RH  048%=      5-min Rain = 0
KCL1 160916Z 20012KT 09/M02 A3011 RMK A01 T00851019  RH  048%=      5-min Rain = 0
KCL1 160917Z 21009KT 09/M02 A3011 RMK A01 T00851019  RH  048%=      5-min Rain = 0
KCL1 160918Z 21009KT 09/M02 A3011 RMK A01 T00861019  RH  048%=      5-min Rain = 0
KCL1 160919Z 20010KT 09/M02 A3011 RMK A01 T00861019  RH  048%=      5-min Rain = 0
KCL1 160920Z 20009KT 09/M02 A3011 RMK A01 T00861019  RH  048%=      5-min Rain = 0
KCL1 160921Z 21006KT 09/M02 A3011 RMK A01 T00861019  RH  048%=      5-min Rain = 0
KCL1 160922Z 20009KT 09/M02 A3011 RMK A01 T00851019  RH  048%=      5-min Rain = 0
KCL1 160923Z 21008KT 09/M02 A3011 RMK A01 T00851019  RH  048%=      5-min Rain = 0
KCL1 160924Z 20010KT 09/M02 A3011 RMK A01 T00851019  RH  048%=      5-min Rain = 0
KCL1 160925Z 20007KT 09/M02 A3011 RMK A01 T00851019  RH  048%=      5-min Rain = 0
KCL1 160926Z 20009KT 08/M02 A3011 RMK A01 T00841019  RH  048%=      5-min Rain = 0
KCL1 160927Z 20007KT 08/M02 A3011 RMK A01 T00841019  RH  048%=      5-min Rain = 0
KCL1 160928Z 20008KT 08/M02 A3011 RMK A01 T00841019  RH  049%=      5-min Rain = 0
KCL1 160929Z 20008KT 08/M02 A3011 RMK A01 T00831019  RH  049%=      5-min Rain = 0
KCL1 160930Z 19008KT 08/M02 A3011 RMK A01 T00831019  RH  049%=      5-min Rain = 0
KCL1 160931Z 19007KT 08/M02 A3011 RMK A01 T00831019  RH  049%=      5-min Rain = 0
KCL1 160932Z 20006KT 08/M02 A3011 RMK A01 T00831018  RH  049%=      5-min Rain = 0
KCL1 160933Z 20007KT 08/M02 A3011 RMK A01 T00821018  RH  049%=      5-min Rain = 0
KCL1 160934Z 20006G11KT 08/M02 A3011 RMK A01 T00821019  RH  049%=      5-min Rain = 0
KCL1 160935Z 19010KT 08/M02 A3011 RMK A01 T00821018  RH  049%=      5-min Rain = 0
KCL1 160936Z 18009KT 08/M02 A3011 RMK A01 T00821018  RH  049%=      5-min Rain = 0
KCL1 160937Z 20006KT 08/M02 A3011 RMK A01 T00831018  RH  049%=      5-min Rain = 0
KCL1 160938Z 20008KT 08/M02 A3011 RMK A01 T00831018  RH  049%=      5-min Rain = 0
KCL1 160939Z 19006KT 08/M02 A3011 RMK A01 T00831018  RH  049%=      5-min Rain = 0
KCL1 160940Z 18007G12KT 08/M02 A3011 RMK A01 T00831018  RH  049%=      5-min Rain = 0
KCL1 160941Z 19009KT 08/M02 A3011 RMK A01 T00821018  RH  049%=      5-min Rain = 0
KCL1 160942Z 19010KT 08/M02 A3011 RMK A01 T00811018  RH  050%=      5-min Rain = 0
KCL1 160943Z 19008KT 08/M02 A3011 RMK A01 T00821017  RH  049%=      5-min Rain = 0
KCL1 160944Z 19006KT 08/M02 A3011 RMK A01 T00831018  RH  049%=      5-min Rain = 0
KCL1 160945Z 19009KT 08/M02 A3011 RMK A01 T00831018  RH  049%=      5-min Rain = 0
KCL1 160946Z 21007KT 08/M02 A3011 RMK A01 T00821017  RH  049%=      5-min Rain = 0
KCL1 160947Z 19006KT 08/M02 A3011 RMK A01 T00831017  RH  049%=      5-min Rain = 0
KCL1 160948Z 19008KT 08/M02 A3011 RMK A01 T00821018  RH  049%=      5-min Rain = 0
KCL1 160949Z 19010KT 08/M02 A3011 RMK A01 T00811018  RH  050%=      5-min Rain = 0
KCL1 160950Z 19009KT 08/M02 A3011 RMK A01 T00811018  RH  050%=      5-min Rain = 0
KCL1 160951Z 20009KT 08/M02 A3011 RMK A01 T00811017  RH  050%=      5-min Rain = 0
KCL1 160952Z 20008KT 08/M02 A3011 RMK A01 T00821018  RH  050%=      5-min Rain = 0
KCL1 160953Z 20007KT 08/M02 A3011 RMK A01 T00821018  RH  049%=      5-min Rain = 0
KCL1 160954Z 18006KT 08/M02 A3011 RMK A01 T00821018  RH  049%=      5-min Rain = 0
KCL1 160955Z 19008KT 08/M02 A3011 RMK A01 T00811018  RH  050%=      5-min Rain = 0
KCL1 160956Z 18011KT 08/M02 A3011 RMK A01 T00811018  RH  050%=      5-min Rain = 0
KCL1 160957Z 19011KT 08/M02 A3011 RMK A01 T00811018  RH  050%=      5-min Rain = 0
KCL1 160958Z 19010KT 08/M02 A3011 RMK A01 T00811018  RH  050%=      5-min Rain = 0
KCL1 160959Z 20009KT 08/M02 A3011 RMK A01 T00821018  RH  049%=      5-min Rain = 0
KCL1 161000Z 20007KT 08/M02 A3011 RMK A01 T00821018  RH  049%=      5-min Rain = 0
KCL1 161001Z 18010KT 08/M02 A3011 RMK A01 T00821018  RH  049%=      5-min Rain = 0
KCL1 161002Z 19010KT 08/M02 A3011 RMK A01 T00811017  RH  050%=      5-min Rain = 0
KCL1 161003Z 19008KT 08/M02 A3011 RMK A01 T00821017  RH  050%=      5-min Rain = 0
KCL1 161004Z 20008KT 08/M02 A3011 RMK A01 T00831017  RH  049%=      5-min Rain = 0
KCL1 161005Z 19008KT 08/M02 A3011 RMK A01 T00831017  RH  049%=      5-min Rain = 0
KCL1 161006Z 19008KT 08/M02 A3011 RMK A01 T00831017  RH  049%=      5-min Rain = 0
KCL1 161007Z 19006KT 08/M02 A3011 RMK A01 T00821017  RH  049%=      5-min Rain = 0
KCL1 161008Z 19007KT 08/M02 A3011 RMK A01 T00811018  RH  050%=      5-min Rain = 0
KCL1 161009Z 19008KT 08/M02 A3011 RMK A01 T00801018  RH  050%=      5-min Rain = 0
KCL1 161010Z 19009KT 08/M02 A3011 RMK A01 T00801018  RH  050%=      5-min Rain = 0
KCL1 161011Z 19010KT 08/M02 A3011 RMK A01 T00801017  RH  050%=      5-min Rain = 0
KCL1 161012Z 21007KT 08/M02 A3011 RMK A01 T00801017  RH  050%=      5-min Rain = 0
KCL1 161013Z 20007KT 08/M02 A3011 RMK A01 T00801017  RH  050%=      5-min Rain = 0
KCL1 161014Z 20006KT 08/M02 A3011 RMK A01 T00791017  RH  050%=      5-min Rain = 0
KCL1 161015Z 20006KT 08/M02 A3011 RMK A01 T00791017  RH  050%=      5-min Rain = 0
KCL1 161016Z 18008KT 08/M02 A3011 RMK A01 T00791017  RH  051%=      5-min Rain = 0
KCL1 161017Z 20005KT 08/M02 A3011 RMK A01 T00791017  RH  051%=      5-min Rain = 0
KCL1 161018Z 21006KT 08/M02 A3011 RMK A01 T00791017  RH  051%=      5-min Rain = 0
KCL1 161019Z 19006KT 08/M02 A3011 RMK A01 T00791017  RH  051%=      5-min Rain = 0
KCL1 161020Z 20006KT 08/M02 A301 RMK A01 T00791017  RH  051%=      5-min Rain = 0
KCL1 161021Z 20005KT 08/M02 A3011 RMK A01 T00791017  RH  051%=      5-min Rain = 0
KCL1 161022Z 20004KT 08/M02 A3011 RMK A01 T00791016  RH  051%=      5-min Rain = 0
KCL1 161023Z 20004KT 08/M02 A3011 RMK A01 T00791017  RH  051%=      5-min Rain = 0
KCL1 161024Z 20005KT 08/M02 A3011 RMK A01 T00771017  RH  051%=      5-min Rain = 0
KCL1 161025Z 20005KT 08/M02 A301 RMK A01 T00771017  RH  052%=      5-min Rain = 0
KCL1 161026Z 20005KT 08/M02 A301 RMK A01 T00761017  RH  052%=      5-min Rain = 0
KCL1 161027Z 22005KT 08/M02 A3011 RMK A01 T00771017  RH  052%=      5-min Rain = 0
KCL1 161028Z 19007KT 08/M02 A301 RMK A01 T00771016  RH  052%=      5-min Rain = 0
KCL1 161029Z 18008KT 08/M02 A301 RMK A01 T00771015  RH  052%=      5-min Rain = 0
KCL1 161030Z 20006KT 08/M02 A301 RMK A01 T00781015  RH  052%=      5-min Rain = 0
KCL1 161031Z 20007KT 08/M02 A301 RMK A01 T00771015  RH  052%=      5-min Rain = 0
KCL1 161032Z 19006KT 08/M02 A301 RMK A01 T00771015  RH  052%=      5-min Rain = 0
KCL1 161033Z 19006KT 08/M02 A301 RMK A01 T00771015  RH  052%=      5-min Rain = 0
KCL1 161034Z 20008KT 08/M02 A301 RMK A01 T00761016  RH  052%=      5-min Rain = 0
KCL1 161035Z 20007KT 08/M02 A301 RMK A01 T00761015  RH  053%=      5-min Rain = 0
KCL1 161036Z 20009KT 08/M02 A301 RMK A01 T00761015  RH  053%=      5-min Rain = 0
KCL1 161037Z 20007KT 08/M01 A301 RMK A01 T00771014  RH  053%=      5-min Rain = 0
KCL1 161038Z 20006KT 08/M01 A301 RMK A01 T00771014  RH  053%=      5-min Rain = 0
KCL1 161039Z 21006KT 08/M01 A301 RMK A01 T00761014  RH  053%=      5-min Rain = 0
KCL1 161040Z 21007KT 08/M01 A301 RMK A01 T00761014  RH  053%=      5-min Rain = 0
KCL1 161041Z 21007KT 08/M01 A301 RMK A01 T00751014  RH  053%=      5-min Rain = 0
KCL1 161042Z 20006KT 08/M01 A301 RMK A01 T00751014  RH  053%=      5-min Rain = 0
KCL1 161043Z 19008KT 08/M01 A301 RMK A01 T00761013  RH  053%=      5-min Rain = 0
KCL1 161044Z 19010KT 08/M01 A301 RMK A01 T00751013  RH  054%=      5-min Rain = 0
KCL1 161045Z 20006KT 08/M01 A301 RMK A01 T00761012  RH  054%=      5-min Rain = 0
KCL1 161046Z 20009KT 08/M01 A301 RMK A01 T00761012  RH  053%=      5-min Rain = 0
KCL1 161047Z 20007KT 08/M01 A301 RMK A01 T00761012  RH  053%=      5-min Rain = 0
KCL1 161048Z 19006KT 08/M01 A301 RMK A01 T00771012  RH  053%=      5-min Rain = 0
KCL1 161049Z 20007KT 08/M01 A301 RMK A01 T00761012  RH  053%=      5-min Rain = 0
KCL1 161050Z 21007KT 08/M01 A301 RMK A01 T00761012  RH  054%=      5-min Rain = 0
KCL1 161051Z 20007KT 08/M01 A301 RMK A01 T00761012  RH  054%=      5-min Rain = 0
KCL1 161052Z 20007KT 08/M01 A301 RMK A01 T00761011  RH  054%=      5-min Rain = 0
KCL1 161053Z 19006KT 08/M01 A301 RMK A01 T00761011  RH  054%=      5-min Rain = 0
KCL1 161054Z 19008KT 08/M01 A301 RMK A01 T00761011  RH  054%=      5-min Rain = 0
KCL1 161055Z 20009KT 08/M01 A301 RMK A01 T00761011  RH  054%=      5-min Rain = 0
KCL1 161056Z 19007KT 08/M01 A301 RMK A01 T00771011  RH  054%=      5-min Rain = 0
KCL1 161057Z 20008KT 08/M01 A301 RMK A01 T00771010  RH  054%=      5-min Rain = 0
KCL1 161058Z 19006KT 08/M01 A301 RMK A01 T00781009  RH  054%=      5-min Rain = 0
KCL1 161059Z 21006KT 08/M01 A301 RMK A01 T00781009  RH  054%=      5-min Rain = 0
KCL1 161100Z 20007KT 08/M01 A301 RMK A01 T00771010  RH  054%=      5-min Rain = 0
KCL1 161101Z 20006KT 08/M01 A301 RMK A01 T00771010  RH  054%=      5-min Rain = 0
KCL1 161102Z 21007KT 08/M01 A3009 RMK A01 T00771009  RH  054%=      5-min Rain = 0
KCL1 161103Z 22006KT 08/M01 A3009 RMK A01 T00771009  RH  055%=      5-min Rain = 0
KCL1 161104Z 22003KT 08/M01 A3009 RMK A01 T00781009  RH  054%=      5-min Rain = 0
KCL1 161105Z 21004KT 08/M01 A3009 RMK A01 T00781009  RH  054%=      5-min Rain = 0
KCL1 161106Z 19004KT 08/M01 A3009 RMK A01 T00771009  RH  055%=      5-min Rain = 0
KCL1 161107Z 20003KT 08/M01 A3009 RMK A01 T00761009  RH  055%=      5-min Rain = 0
KCL1 161108Z 21005KT 08/M01 A3009 RMK A01 T00761009  RH  055%=      5-min Rain = 0
KCL1 161109Z 20005KT 08/M01 A3009 RMK A01 T00761009  RH  055%=      5-min Rain = 0
KCL1 161110Z 21004KT 08/M01 A3009 RMK A01 T00761009  RH  055%=      5-min Rain = 0
KCL1 161111Z 22005KT 08/M01 A3009 RMK A01 T00761009  RH  055%=      5-min Rain = 0
KCL1 161112Z 20004KT 08/M01 A3009 RMK A01 T00761009  RH  055%=      5-min Rain = 0
KCL1 161113Z 21004KT 08/M01 A3009 RMK A01 T00751009  RH  055%=      5-min Rain = 0
KCL1 161114Z 22005KT 08/M01 A3009 RMK A01 T00751008  RH  055%=      5-min Rain = 0
KCL1 161115Z 22006KT 07/M01 A3009 RMK A01 T00741009  RH  056%=      5-min Rain = 0
KCL1 161116Z 21004KT 08/M01 A3009 RMK A01 T00751008  RH  056%=      5-min Rain = 0
KCL1 161117Z 21004KT 08/M01 A3009 RMK A01 T00751008  RH  055%=      5-min Rain = 0
KCL1 161118Z 18004KT 08/M01 A3009 RMK A01 T00751008  RH  055%=      5-min Rain = 0
KCL1 161119Z 20004KT 07/M01 A3009 RMK A01 T00741009  RH  056%=      5-min Rain = 0
KCL1 161120Z 22006KT 07/M01 A3009 RMK A01 T00731009  RH  056%=      5-min Rain = 0
KCL1 161121Z 21007KT 07/M01 A3009 RMK A01 T00731009  RH  056%=      5-min Rain = 0
KCL1 161122Z 21006KT 07/M01 A3009 RMK A01 T00731009  RH  056%=      5-min Rain = 0
KCL1 161123Z 21005KT 07/M01 A3009 RMK A01 T00731009  RH  056%=      5-min Rain = 0
KCL1 161124Z 20005KT 07/M01 A3009 RMK A01 T00731009  RH  056%=      5-min Rain = 0
KCL1 161125Z 21006KT 07/M01 A3008 RMK A01 T00731009  RH  056%=      5-min Rain = 0
KCL1 161126Z 19006KT 07/M01 A3008 RMK A01 T00731009  RH  056%=      5-min Rain = 0
KCL1 161127Z 20007KT 07/M01 A3008 RMK A01 T00731009  RH  056%=      5-min Rain = 0
KCL1 161128Z 19007KT 07/M01 A3008 RMK A01 T00731009  RH  056%=      5-min Rain = 0
KCL1 161129Z 19008KT 07/M01 A3008 RMK A01 T00731009  RH  056%=      5-min Rain = 0
KCL1 161130Z 20008KT 07/M01 A3008 RMK A01 T00731008  RH  056%=      5-min Rain = 0
KCL1 161131Z 20007KT 07/M01 A3008 RMK A01 T00731008  RH  056%=      5-min Rain = 0
KCL1 161132Z 19009KT 07/M01 A3008 RMK A01 T00731008  RH  056%=      5-min Rain = 0
KCL1 161133Z 19007KT 07/M01 A3008 RMK A01 T00731008  RH  056%=      5-min Rain = 0
KCL1 161134Z 20008KT 07/M01 A3008 RMK A01 T00731008  RH  056%=      5-min Rain = 0
KCL1 161135Z 20006KT 07/M01 A3008 RMK A01 T00731008  RH  056%=      5-min Rain = 0
KCL1 161136Z 20005KT 07/M01 A3008 RMK A01 T00721009  RH  056%=      5-min Rain = 0
KCL1 161137Z 20007KT 07/M01 A3008 RMK A01 T00721009  RH  057%=      5-min Rain = 0
KCL1 161138Z 21006KT 07/M01 A3008 RMK A01 T00711009  RH  057%=      5-min Rain = 0
KCL1 161139Z 19005KT 07/M01 A3008 RMK A01 T00711009  RH  057%=      5-min Rain = 0
KCL1 161140Z 20004KT 07/M01 A3008 RMK A01 T00711009  RH  057%=      5-min Rain = 0
KCL1 161141Z 20005KT 07/M01 A3008 RMK A01 T00711009  RH  057%=      5-min Rain = 0
KCL1 161142Z 20006KT 07/M01 A3008 RMK A01 T00711009  RH  057%=      5-min Rain = 0
KCL1 161143Z 21005KT 07/M01 A3008 RMK A01 T00711008  RH  057%=      5-min Rain = 0
KCL1 161144Z 21005KT 07/M01 A3008 RMK A01 T00711008  RH  057%=      5-min Rain = 0
KCL1 161145Z 21006KT 07/M01 A3008 RMK A01 T00711008  RH  057%=      5-min Rain = 0
KCL1 161146Z 21007KT 07/M01 A3008 RMK A01 T00711008  RH  057%=      5-min Rain = 0
KCL1 161147Z 20006KT 07/M01 A3008 RMK A01 T00711008  RH  057%=      5-min Rain = 0
KCL1 161148Z 21005KT 07/M01 A3008 RMK A01 T00711008  RH  057%=      5-min Rain = 0
KCL1 161149Z 21007KT 07/M01 A3008 RMK A01 T00711008  RH  057%=      5-min Rain = 0
KCL1 161150Z 21007KT 07/M01 A3008 RMK A01 T00701009  RH  057%=      5-min Rain = 0
KCL1 161151Z 21007KT 07/M01 A3008 RMK A01 T00711008  RH  057%=      5-min Rain = 0
KCL1 161152Z 22005KT 07/M01 A3008 RMK A01 T00721008  RH  057%=      5-min Rain = 0
KCL1 161153Z 22005KT 07/M01 A3008 RMK A01 T00711008  RH  057%=      5-min Rain = 0
KCL1 161154Z 22005KT 07/M01 A3008 RMK A01 T00711008  RH  057%=      5-min Rain = 0
KCL1 161155Z 21005KT 07/M01 A3008 RMK A01 T00711009  RH  057%=      5-min Rain = 0
KCL1 161156Z 20005KT 07/M01 A3008 RMK A01 T00711008  RH  057%=      5-min Rain = 0
KCL1 161157Z 21004KT 07/M01 A3008 RMK A01 T00711009  RH  057%=      5-min Rain = 0
KCL1 161158Z 21005KT 07/M01 A3008 RMK A01 T00711009  RH  057%=      5-min Rain = 0
KCL1 161159Z 21005KT 07/M01 A3008 RMK A01 T00701008  RH  057%=      5-min Rain = 0
KCL1 161200Z 21004KT 07/M01 A3008 RMK A01 T00701009  RH  057%=      5-min Rain = 0
KCL1 161201Z 20006KT 07/M01 A3008 RMK A01 T00691009  RH  058%=      5-min Rain = 0
KCL1 161202Z 21005KT 07/M01 A3008 RMK A01 T00691008  RH  058%=      5-min Rain = 0
KCL1 161203Z 20005KT 07/M01 A3008 RMK A01 T00691008  RH  058%=      5-min Rain = 0
KCL1 161204Z 20006KT 07/M01 A3008 RMK A01 T00691008  RH  058%=      5-min Rain = 0
KCL1 161205Z 19006KT 07/M01 A3008 RMK A01 T00681008  RH  058%=      5-min Rain = 0
KCL1 161206Z 19006KT 07/M01 A3008 RMK A01 T00691008  RH  058%=      5-min Rain = 0
KCL1 161207Z 20005KT 07/M01 A3008 RMK A01 T00681009  RH  058%=      5-min Rain = 0
KCL1 161208Z 19007KT 07/M01 A3008 RMK A01 T00681008  RH  058%=      5-min Rain = 0
KCL1 161209Z 19007KT 07/M01 A3008 RMK A01 T00671009  RH  058%=      5-min Rain = 0
KCL1 161210Z 19006KT 07/M01 A3008 RMK A01 T00671008  RH  058%=      5-min Rain = 0
KCL1 161211Z 20005KT 07/M01 A3008 RMK A01 T00671008  RH  058%=      5-min Rain = 0
KCL1 161212Z 19005KT 07/M01 A3008 RMK A01 T00671008  RH  058%=      5-min Rain = 0
KCL1 161213Z 20006KT 07/M01 A3008 RMK A01 T00671008  RH  059%=      5-min Rain = 0
KCL1 161214Z 20006KT 07/M01 A3008 RMK A01 T00671008  RH  059%=      5-min Rain = 0
KCL1 161215Z 19005KT 07/M01 A3008 RMK A01 T00681008  RH  058%=      5-min Rain = 0
KCL1 161216Z 19006KT 07/M01 A3008 RMK A01 T00681008  RH  058%=      5-min Rain = 0
KCL1 161217Z 19005KT 07/M01 A3008 RMK A01 T00681008  RH  058%=      5-min Rain = 0
KCL1 161218Z 18006KT 07/M01 A3008 RMK A01 T00671009  RH  059%=      5-min Rain = 0
KCL1 161219Z 19008KT 07/M01 A3008 RMK A01 T00661009  RH  059%=      5-min Rain = 0
KCL1 161220Z 19007KT 07/M01 A3008 RMK A01 T00651009  RH  059%=      5-min Rain = 0
KCL1 161221Z 20006KT 07/M01 A3008 RMK A01 T00671008  RH  059%=      5-min Rain = 0
KCL1 161222Z 19006KT 07/M01 A3008 RMK A01 T00681008  RH  058%=      5-min Rain = 0
KCL1 161223Z 19006KT 07/M01 A3008 RMK A01 T00681008  RH  058%=      5-min Rain = 0
KCL1 161224Z 20007KT 07/M01 A3008 RMK A01 T00681008  RH  058%=      5-min Rain = 0
KCL1 161225Z 18009KT 07/M01 A3008 RMK A01 T00681008  RH  058%=      5-min Rain = 0
KCL1 161226Z 20009KT 07/M01 A3008 RMK A01 T00691007  RH  058%=      5-min Rain = 0
KCL1 161227Z 20010KT 07/M01 A3008 RMK A01 T00701007  RH  058%=      5-min Rain = 0
KCL1 161228Z 20010KT 07/M01 A3008 RMK A01 T00711007  RH  057%=      5-min Rain = 0
KCL1 161229Z 20007KT 07/M01 A3008 RMK A01 T00711008  RH  057%=      5-min Rain = 0
KCL1 161230Z 19008KT 07/M01 A3008 RMK A01 T00711008  RH  057%=      5-min Rain = 0
KCL1 161231Z 20010KT 07/M01 A3008 RMK A01 T00711008  RH  057%=      5-min Rain = 0
KCL1 161232Z 18009KT 07/M01 A3008 RMK A01 T00711008  RH  057%=      5-min Rain = 0
KCL1 161233Z 19009KT 07/M01 A3007 RMK A01 T00711008  RH  057%=      5-min Rain = 0
KCL1 161234Z 19008KT 07/M01 A3007 RMK A01 T00711008  RH  057%=      5-min Rain = 0
KCL1 161235Z 20010KT 07/M01 A3007 RMK A01 T00711008  RH  057%=      5-min Rain = 0
KCL1 161236Z 19008KT 07/M01 A3007 RMK A01 T00721008  RH  057%=      5-min Rain = 0
KCL1 161237Z 20008KT 07/M01 A3007 RMK A01 T00721008  RH  057%=      5-min Rain = 0
KCL1 161238Z 19007KT 07/M01 A3007 RMK A01 T00711008  RH  057%=      5-min Rain = 0
KCL1 161239Z 19007KT 07/M01 A3007 RMK A01 T00711008  RH  057%=      5-min Rain = 0
KCL1 161240Z 19008KT 07/M01 A3007 RMK A01 T00711008  RH  057%=      5-min Rain = 0
KCL1 161241Z 19010KT 07/M01 A3007 RMK A01 T00711008  RH  057%=      5-min Rain = 0
KCL1 161242Z 19010KT 07/M01 A3007 RMK A01 T00711008  RH  057%=      5-min Rain = 0
KCL1 161243Z 19010KT 07/M01 A3007 RMK A01 T00711008  RH  057%=      5-min Rain = 0
KCL1 161244Z 19010KT 07/M01 A3007 RMK A01 T00711008  RH  057%=      5-min Rain = 0
KCL1 161245Z 19010KT 07/M01 A3007 RMK A01 T00711007  RH  057%=      5-min Rain = 0
KCL1 161246Z 19009KT 07/M01 A3007 RMK A01 T00711008  RH  057%=      5-min Rain = 0
KCL1 161247Z 19012KT 07/M01 A3007 RMK A01 T00711008  RH  057%=      5-min Rain = 0
KCL1 161248Z 20011KT 07/M01 A3007 RMK A01 T00711008  RH  057%=      5-min Rain = 0
KCL1 161249Z 20012KT 07/M01 A3007 RMK A01 T00701008  RH  057%=      5-min Rain = 0
KCL1 161250Z 20012KT 07/M01 A3007 RMK A01 T00701008  RH  057%=      5-min Rain = 0
KCL1 161251Z 20013KT 07/M01 A3007 RMK A01 T00711008  RH  057%=      5-min Rain = 0
KCL1 161252Z 20011KT 07/M01 A3007 RMK A01 T00711008  RH  057%=      5-min Rain = 0
KCL1 161253Z 19011KT 07/M01 A3007 RMK A01 T00711008  RH  057%=      5-min Rain = 0
KCL1 161254Z 20011KT 07/M01 A3007 RMK A01 T00711008  RH  057%=      5-min Rain = 0
KCL1 161255Z 20011KT 07/M01 A3007 RMK A01 T00711008  RH  057%=      5-min Rain = 0
KCL1 161256Z 19010KT 07/M01 A3007 RMK A01 T00711008  RH  057%=      5-min Rain = 0
KCL1 161257Z 19011KT 07/M01 A3007 RMK A01 T00711008  RH  058%=      5-min Rain = 0
KCL1 161258Z 21009KT 07/M01 A3007 RMK A01 T00701008  RH  058%=      5-min Rain = 0
KCL1 161259Z 20011G16KT 07/M01 A3007 RMK A01 T00701008  RH  058%=      5-min Rain = 0
KCL1 161300Z 20014KT 07/M01 A3007 RMK A01 T00701007  RH  058%=      5-min Rain = 0
KCL1 161301Z 19011KT 07/M01 A3007 RMK A01 T00711007  RH  058%=      5-min Rain = 0
KCL1 161302Z 19010KT 07/M01 A3007 RMK A01 T00711007  RH  057%=      5-min Rain = 0
KCL1 161303Z 20009KT 07/M01 A3007 RMK A01 T00711008  RH  058%=      5-min Rain = 0
KCL1 161304Z 19010KT 07/M01 A3007 RMK A01 T00691008  RH  058%=      5-min Rain = 0
KCL1 161305Z 19011KT 07/M01 A3007 RMK A01 T00691008  RH  058%=      5-min Rain = 0
KCL1 161306Z 20011KT 07/M01 A3007 RMK A01 T00691008  RH  058%=      5-min Rain = 0
KCL1 161307Z 20011KT 07/M01 A3007 RMK A01 T00691008  RH  058%=      5-min Rain = 0
KCL1 161308Z 19009KT 07/M01 A3008 RMK A01 T00691008  RH  058%=      5-min Rain = 0
KCL1 161309Z 20011KT 07/M01 A3007 RMK A01 T00691008  RH  058%=      5-min Rain = 0
KCL1 161310Z 19010KT 07/M01 A3007 RMK A01 T00691008  RH  058%=      5-min Rain = 0
KCL1 161311Z 19010KT 07/M01 A3007 RMK A01 T00681008  RH  058%=      5-min Rain = 0
KCL1 161312Z 20011KT 07/M01 A3007 RMK A01 T00681008  RH  058%=      5-min Rain = 0
KCL1 161313Z 20010KT 07/M01 A3007 RMK A01 T00671008  RH  059%=      5-min Rain = 0
KCL1 161314Z 19010KT 07/M01 A3007 RMK A01 T00671008  RH  059%=      5-min Rain = 0
KCL1 161315Z 20010KT 07/M01 A3007 RMK A01 T00681008  RH  058%=      5-min Rain = 0
KCL1 161316Z 19012KT 07/M01 A3007 RMK A01 T00681008  RH  058%=      5-min Rain = 0
KCL1 161317Z 20009KT 07/M01 A3007 RMK A01 T00681008  RH  058%=      5-min Rain = 0
KCL1 161318Z 20011KT 07/M01 A3007 RMK A01 T00681008  RH  058%=      5-min Rain = 0
KCL1 161319Z 20010KT 07/M01 A3007 RMK A01 T00671009  RH  058%=      5-min Rain = 0
KCL1 161320Z 19011KT 07/M01 A3007 RMK A01 T00661009  RH  059%=      5-min Rain = 0
KCL1 161321Z 19011KT 07/M01 A3007 RMK A01 T00661008  RH  059%=      5-min Rain = 0
KCL1 161322Z 20010KT 07/M01 A3007 RMK A01 T00661008  RH  059%=      5-min Rain = 0
KCL1 161323Z 20012KT 07/M01 A3007 RMK A01 T00651009  RH  059%=      5-min Rain = 0
KCL1 161324Z 20011KT 07/M01 A3007 RMK A01 T00651008  RH  059%=      5-min Rain = 0
KCL1 161325Z 19011KT 07/M01 A3008 RMK A01 T00661008  RH  059%=      5-min Rain = 0
KCL1 161326Z 20009KT 07/M01 A3008 RMK A01 T00661008  RH  059%=      5-min Rain = 0
KCL1 161327Z 20010KT 07/M01 A3008 RMK A01 T00661008  RH  059%=      5-min Rain = 0
KCL1 161328Z 20009KT 07/M01 A3008 RMK A01 T00661008  RH  059%=      5-min Rain = 0
KCL1 161329Z 20012KT 07/M01 A3008 RMK A01 T00661008  RH  059%=      5-min Rain = 0
KCL1 161330Z 20011KT 07/M01 A3008 RMK A01 T00661008  RH  059%=      5-min Rain = 0
KCL1 161331Z 20013KT 07/M01 A3008 RMK A01 T00671008  RH  059%=      5-min Rain = 0
KCL1 161332Z 20011KT 07/M01 A3008 RMK A01 T00671008  RH  059%=      5-min Rain = 0
KCL1 161333Z 20009KT 07/M01 A3007 RMK A01 T00671008  RH  059%=      5-min Rain = 0
KCL1 161334Z 19009KT 07/M01 A3007 RMK A01 T00661008  RH  059%=      5-min Rain = 0
KCL1 161335Z 19009KT 07/M01 A3007 RMK A01 T00661008  RH  059%=      5-min Rain = 0
KCL1 161336Z 19010KT 07/M01 A3007 RMK A01 T00651009  RH  059%=      5-min Rain = 0
KCL1 161337Z 19010KT 07/M01 A3007 RMK A01 T00651008  RH  060%=      5-min Rain = 0
KCL1 161338Z 19010KT 07/M01 A3007 RMK A01 T00661008  RH  059%=      5-min Rain = 0
KCL1 161339Z 19009KT 07/M01 A3007 RMK A01 T00661008  RH  059%=      5-min Rain = 0
KCL1 161340Z 19008KT 07/M01 A3007 RMK A01 T00651009  RH  059%=      5-min Rain = 0
KCL1 161341Z 19009KT 06/M01 A3007 RMK A01 T00641008  RH  060%=      5-min Rain = 0
KCL1 161342Z 19010KT 06/M01 A3007 RMK A01 T00631008  RH  060%=      5-min Rain = 0
KCL1 161343Z 19008KT 06/M01 A3007 RMK A01 T00631008  RH  060%=      5-min Rain = 0
KCL1 161344Z 19008KT 06/M01 A3007 RMK A01 T00631008  RH  060%=      5-min Rain = 0
KCL1 161345Z 19008KT 06/M01 A3007 RMK A01 T00631008  RH  060%=      5-min Rain = 0
KCL1 161346Z 20008KT 06/M01 A3007 RMK A01 T00631008  RH  060%=      5-min Rain = 0
KCL1 161347Z 20010KT 06/M01 A3007 RMK A01 T00631008  RH  060%=      5-min Rain = 0
KCL1 161348Z 20008KT 06/M01 A3007 RMK A01 T00631008  RH  060%=      5-min Rain = 0
KCL1 161349Z 20008KT 06/M01 A3007 RMK A01 T00631008  RH  060%=      5-min Rain = 0
KCL1 161350Z 19009KT 06/M01 A3007 RMK A01 T00631008  RH  060%=      5-min Rain = 0
KCL1 161351Z 20009KT 06/M01 A3007 RMK A01 T00641008  RH  060%=      5-min Rain = 0
KCL1 161352Z 21008KT 06/M01 A3008 RMK A01 T00641008  RH  060%=      5-min Rain = 0
KCL1 161353Z 20007KT 06/M01 A3008 RMK A01 T00641008  RH  060%=      5-min Rain = 0
KCL1 161354Z 21006KT 06/M01 A3008 RMK A01 T00641008  RH  060%=      5-min Rain = 0
KCL1 161355Z 20008KT 06/M01 A3008 RMK A01 T00641007  RH  060%=      5-min Rain = 0
KCL1 161356Z 20007KT 06/M01 A3008 RMK A01 T00641008  RH  060%=      5-min Rain = 0
KCL1 161357Z 21007KT 06/M01 A3008 RMK A01 T00641008  RH  060%=      5-min Rain = 0
KCL1 161358Z 19007KT 06/M01 A3008 RMK A01 T00641008  RH  060%=      5-min Rain = 0
KCL1 161359Z 20008KT 06/M01 A3008 RMK A01 T00641008  RH  060%=      5-min Rain = 0
KCL1 161400Z 20009KT 06/M01 A3008 RMK A01 T00631008  RH  060%=      5-min Rain = 0
KCL1 161401Z 20008KT 06/M01 A3008 RMK A01 T00631008  RH  060%=      5-min Rain = 0
KCL1 161402Z 19009KT 06/M01 A3008 RMK A01 T00631008  RH  060%=      5-min Rain = 0
KCL1 161403Z 20008KT 06/M01 A3008 RMK A01 T00641007  RH  060%=      5-min Rain = 0
KCL1 161404Z 19009KT 06/M01 A3008 RMK A01 T00641008  RH  060%=      5-min Rain = 0
KCL1 161405Z 18008KT 06/M01 A3008 RMK A01 T00631008  RH  060%=      5-min Rain = 0
KCL1 161406Z 19009KT 06/M01 A3008 RMK A01 T00641007  RH  061%=      5-min Rain = 0
KCL1 161407Z 19010KT 06/M01 A3008 RMK A01 T00641007  RH  061%=      5-min Rain = 0
KCL1 161408Z 19011KT 06/M01 A3008 RMK A01 T00641007  RH  060%=      5-min Rain = 0
KCL1 161409Z 19010KT 07/M01 A3008 RMK A01 T00651007  RH  060%=      5-min Rain = 0
KCL1 161410Z 19010KT 07/M01 A3008 RMK A01 T00661006  RH  060%=      5-min Rain = 0
KCL1 161411Z 19011KT 07/M01 A3008 RMK A01 T00651007  RH  060%=      5-min Rain = 0
KCL1 161412Z 19010KT 07/M01 A3008 RMK A01 T00661006  RH  060%=      5-min Rain = 0
KCL1 161413Z 18009KT 07/M01 A3008 RMK A01 T00661006  RH  060%=      5-min Rain = 0
KCL1 161414Z 18011KT 07/M01 A3008 RMK A01 T00661006  RH  060%=      5-min Rain = 0
KCL1 161415Z 18011KT 07/M01 A3008 RMK A01 T00671006  RH  060%=      5-min Rain = 0
KCL1 161416Z 19010KT 07/M01 A3007 RMK A01 T00681006  RH  059%=      5-min Rain = 0
KCL1 161417Z 19011KT 07/M01 A3007 RMK A01 T00681006  RH  059%=      5-min Rain = 0
KCL1 161418Z 19012KT 07/M01 A3007 RMK A01 T00681006  RH  059%=      5-min Rain = 0
KCL1 161419Z 19010KT 07/M01 A3007 RMK A01 T00691005  RH  059%=      5-min Rain = 0
KCL1 161420Z 18009KT 07/M01 A3008 RMK A01 T00691006  RH  059%=      5-min Rain = 0
KCL1 161421Z 19010KT 07/M01 A3008 RMK A01 T00691005  RH  059%=      5-min Rain = 0
KCL1 161422Z 19008KT 07/M01 A3008 RMK A01 T00691005  RH  059%=      5-min Rain = 0
KCL1 161423Z 19010KT 07/M01 A3008 RMK A01 T00681006  RH  059%=      5-min Rain = 0
KCL1 161424Z 18010KT 07/M01 A3008 RMK A01 T00681005  RH  059%=      5-min Rain = 0
KCL1 161425Z 18011KT 07/M01 A3008 RMK A01 T00681005  RH  059%=      5-min Rain = 0
KCL1 161426Z 18009KT 07/M01 A3008 RMK A01 T00681006  RH  059%=      5-min Rain = 0
KCL1 161427Z 18009KT 07/M01 A3008 RMK A01 T00691005  RH  059%=      5-min Rain = 0
KCL1 161428Z 19011KT 07/M01 A3008 RMK A01 T00691005  RH  059%=      5-min Rain = 0
KCL1 161429Z 19009KT 07/M01 A3008 RMK A01 T00691005  RH  059%=      5-min Rain = 0
KCL1 161430Z 19009KT 07/M01 A3008 RMK A01 T00691005  RH  059%=      5-min Rain = 0
KCL1 161431Z 18010KT 07/M01 A3008 RMK A01 T00691005  RH  059%=      5-min Rain = 0
KCL1 161432Z 19010KT 07/M01 A3008 RMK A01 T00691005  RH  059%=      5-min Rain = 0
KCL1 161433Z 18010KT 07/M01 A3008 RMK A01 T00691005  RH  059%=      5-min Rain = 0
KCL1 161434Z 19010KT 07/M01 A3008 RMK A01 T00691005  RH  059%=      5-min Rain = 0
KCL1 161435Z 19011KT 07/M01 A3008 RMK A01 T00691005  RH  059%=      5-min Rain = 0
KCL1 161436Z 19008KT 07/M01 A3008 RMK A01 T00691005  RH  059%=      5-min Rain = 0
KCL1 161437Z 19009KT 07/M01 A3008 RMK A01 T00691005  RH  059%=      5-min Rain = 0
KCL1 161438Z 19010KT 07/M01 A3008 RMK A01 T00691005  RH  059%=      5-min Rain = 0
KCL1 161439Z 18009KT 07/M01 A3008 RMK A01 T00701005  RH  059%=      5-min Rain = 0
KCL1 161440Z 19011KT 07/M00 A3008 RMK A01 T00701004  RH  059%=      5-min Rain = 0
KCL1 161441Z 19011KT 07/M00 A3008 RMK A01 T00711004  RH  059%=      5-min Rain = 0
KCL1 161442Z 19010KT 07/M00 A3007 RMK A01 T00711004  RH  059%=      5-min Rain = 0
KCL1 161443Z 19009KT 07/M00 A3008 RMK A01 T00721004  RH  058%=      5-min Rain = 0
KCL1 161444Z 19010KT 07/M00 A3008 RMK A01 T00731004  RH  058%=      5-min Rain = 0
KCL1 161445Z 19011KT 07/M00 A3007 RMK A01 T00741004  RH  058%=      5-min Rain = 0
KCL1 161446Z 19011KT 07/M00 A3008 RMK A01 T00741004  RH  058%=      5-min Rain = 0
KCL1 161447Z 19011KT 08/M00 A3008 RMK A01 T00751004  RH  057%=      5-min Rain = 0
KCL1 161448Z 18011KT 08/M00 A3008 RMK A01 T00751004  RH  057%=      5-min Rain = 0
KCL1 161449Z 19010KT 08/M00 A3007 RMK A01 T00771003  RH  057%=      5-min Rain = 0
KCL1 161450Z 19008KT 08/M00 A3008 RMK A01 T00781003  RH  057%=      5-min Rain = 0
KCL1 161451Z 18009KT 08/M00 A3007 RMK A01 T00791003  RH  056%=      5-min Rain = 0
KCL1 161452Z 19010KT 08/M00 A3007 RMK A01 T00791003  RH  056%=      5-min Rain = 0
KCL1 161453Z 20009KT 08/M00 A3007 RMK A01 T00791003  RH  056%=      5-min Rain = 0
KCL1 161454Z 20008KT 08/M00 A3008 RMK A01 T00791003  RH  056%=      5-min Rain = 0
KCL1 161455Z 19009KT 08/M00 A3008 RMK A01 T00791003  RH  056%=      5-min Rain = 0
KCL1 161456Z 20009KT 08/M00 A3008 RMK A01 T00791002  RH  056%=      5-min Rain = 0
KCL1 161457Z 19012KT 08/M00 A3007 RMK A01 T00801002  RH  056%=      5-min Rain = 0
KCL1 161458Z 20012KT 08/M00 A3007 RMK A01 T00801002  RH  056%=      5-min Rain = 0
KCL1 161459Z 20010KT 08/M00 A3007 RMK A01 T00791003  RH  056%=      5-min Rain = 0
KCL1 161500Z 21010KT 08/M00 A3007 RMK A01 T00791002  RH  056%=      5-min Rain = 0
KCL1 161501Z 20010G17KT 08/M00 A3007 RMK A01 T00801002  RH  056%=      5-min Rain = 0
KCL1 161502Z 21011KT 08/M00 A3007 RMK A01 T00801003  RH  056%=      5-min Rain = 0
KCL1 161503Z 20009G14KT 08/M00 A3007 RMK A01 T00801002  RH  056%=      5-min Rain = 0
KCL1 161504Z 21010KT 08/M00 A3007 RMK A01 T00811002  RH  056%=      5-min Rain = 0
KCL1 161505Z 20010KT 08/M00 A3007 RMK A01 T00811002  RH  056%=      5-min Rain = 0
KCL1 161506Z 20011KT 08/M00 A3007 RMK A01 T00821002  RH  055%=      5-min Rain = 0
KCL1 161507Z 20011KT 08/M00 A3007 RMK A01 T00821002  RH  055%=      5-min Rain = 0
KCL1 161508Z 21009KT 08/M00 A3008 RMK A01 T00821002  RH  055%=      5-min Rain = 0
KCL1 161509Z 20012KT 08/M00 A3007 RMK A01 T00821002  RH  055%=      5-min Rain = 0
KCL1 161510Z 20010KT 08/M00 A3007 RMK A01 T00831002  RH  055%=      5-min Rain = 0
KCL1 161511Z 21011KT 08/M00 A3007 RMK A01 T00821002  RH  055%=      5-min Rain = 0
KCL1 161512Z 21012KT 08/M00 A3007 RMK A01 T00821002  RH  055%=      5-min Rain = 0
KCL1 161513Z 20011KT 08/M00 A3007 RMK A01 T00821002  RH  055%=      5-min Rain = 0
KCL1 161514Z 20007KT 08/M00 A3007 RMK A01 T00831002  RH  055%=      5-min Rain = 0
KCL1 161515Z 21009KT 08/M00 A3007 RMK A01 T00831001  RH  055%=      5-min Rain = 0
KCL1 161516Z 21010KT 08/M00 A3007 RMK A01 T00841001  RH  055%=      5-min Rain = 0
KCL1 161517Z 21009KT 08/M00 A3007 RMK A01 T00841001  RH  055%=      5-min Rain = 0
KCL1 161518Z 21010KT 08/M00 A3007 RMK A01 T00841001  RH  055%=      5-min Rain = 0
KCL1 161519Z 21009KT 08/M00 A3007 RMK A01 T00841001  RH  055%=      5-min Rain = 0
KCL1 161520Z 21010KT 08/M00 A3007 RMK A01 T00841001  RH  055%=      5-min Rain = 0
KCL1 161521Z 21010KT 08/00 A3007 RMK A01 T008400-0  RH  055%=      5-min Rain = 0
KCL1 161522Z 22010KT 08/M00 A3007 RMK A01 T00841001  RH  055%=      5-min Rain = 0
KCL1 161523Z 22010KT 08/00 A3007 RMK A01 T008400-0  RH  055%=      5-min Rain = 0
KCL1 161524Z 21008KT 08/M00 A3007 RMK A01 T00831001  RH  055%=      5-min Rain = 0
KCL1 161525Z 21008KT 08/00 A3007 RMK A01 T008300-0  RH  056%=      5-min Rain = 0
KCL1 161526Z 22007KT 08/00 A3007 RMK A01 T008300-0  RH  056%=      5-min Rain = 0
KCL1 161527Z 22010KT 08/00 A3007 RMK A01 T00830000  RH  056%=      5-min Rain = 0
KCL1 161528Z 22009KT 08/00 A3007 RMK A01 T00840000  RH  056%=      5-min Rain = 0
KCL1 161529Z 22008KT 09/00 A3007 RMK A01 T00850000  RH  055%=      5-min Rain = 0
KCL1 161530Z 22008KT 09/00 A3007 RMK A01 T00850000  RH  055%=      5-min Rain = 0
KCL1 161531Z 22008KT 09/00 A3007 RMK A01 T00860001  RH  055%=      5-min Rain = 0
KCL1 161532Z 21008KT 09/00 A3007 RMK A01 T00870002  RH  055%=      5-min Rain = 0
KCL1 161533Z 22008KT 09/00 A3007 RMK A01 T00880002  RH  055%=      5-min Rain = 0
KCL1 161534Z 22010KT 09/00 A3007 RMK A01 T00890002  RH  054%=      5-min Rain = 0
KCL1 161535Z 22010KT 09/00 A3007 RMK A01 T00900002  RH  054%=      5-min Rain = 0
KCL1 161536Z 21008KT 09/00 A3007 RMK A01 T00900002  RH  054%=      5-min Rain = 0
KCL1 161537Z 20009KT 09/00 A3007 RMK A01 T00910002  RH  054%=      5-min Rain = 0
KCL1 161538Z 21009KT 09/00 A3007 RMK A01 T00910002  RH  054%=      5-min Rain = 0
KCL1 161539Z 21007KT 09/00 A3007 RMK A01 T00910003  RH  054%=      5-min Rain = 0
KCL1 161540Z 20009KT 09/00 A3007 RMK A01 T00910003  RH  054%=      5-min Rain = 0
KCL1 161541Z 21009KT 09/00 A3007 RMK A01 T00930004  RH  054%=      5-min Rain = 0
KCL1 161542Z 20010KT 09/00 A3007 RMK A01 T00930003  RH  053%=      5-min Rain = 0
KCL1 161543Z 20011KT 09/00 A3007 RMK A01 T00940003  RH  053%=      5-min Rain = 0
KCL1 161544Z 20009G14KT 10/00 A3007 RMK A01 T00950003  RH  053%=      5-min Rain = 0
KCL1 161545Z 20009KT 10/00 A3007 RMK A01 T00960004  RH  053%=      5-min Rain = 0
KCL1 161546Z 19011KT 10/01 A3007 RMK A01 T00970005  RH  053%=      5-min Rain = 0
KCL1 161547Z 20010KT 10/01 A3006 RMK A01 T00980005  RH  052%=      5-min Rain = 0
KCL1 161548Z 21010KT 10/00 A3006 RMK A01 T00980004  RH  052%=      5-min Rain = 0
KCL1 161549Z 20010KT 10/00 A3006 RMK A01 T00970003  RH  052%=      5-min Rain = 0
KCL1 161550Z 20011KT 10/00 A3006 RMK A01 T00970004  RH  052%=      5-min Rain = 0
KCL1 161551Z 21011KT 10/00 A3006 RMK A01 T00970004  RH  052%=      5-min Rain = 0
KCL1 161552Z 20012KT 10/00 A3006 RMK A01 T00980004  RH  052%=      5-min Rain = 0
KCL1 161553Z 21012KT 10/00 A3006 RMK A01 T00980004  RH  052%=      5-min Rain = 0
KCL1 161554Z 20012KT 10/00 A3006 RMK A01 T00980003  RH  052%=      5-min Rain = 0
KCL1 161555Z 20010KT 10/00 A3006 RMK A01 T00980004  RH  052%=      5-min Rain = 0
KCL1 161556Z 21010KT 10/01 A3006 RMK A01 T00990005  RH  052%=      5-min Rain = 0
KCL1 161557Z 20012KT 10/00 A3006 RMK A01 T00990004  RH  052%=      5-min Rain = 0
KCL1 161558Z 20011KT 10/00 A3006 RMK A01 T01000004  RH  051%=      5-min Rain = 0
KCL1 161559Z 20011KT 10/00 A3006 RMK A01 T00990004  RH  052%=      5-min Rain = 0
KCL1 161600Z 20012KT 10/00 A3006 RMK A01 T00990004  RH  052%=      5-min Rain = 0
KCL1 161601Z 20008KT 10/00 A3006 RMK A01 T00990004  RH  052%=      5-min Rain = 0
KCL1 161602Z 20007KT 10/01 A3006 RMK A01 T00990005  RH  052%=      5-min Rain = 0
KCL1 161603Z 21007KT 10/01 A3006 RMK A01 T00990005  RH  052%=      5-min Rain = 0
KCL1 161604Z 21007KT 10/01 A3006 RMK A01 T00990005  RH  052%=      5-min Rain = 0
KCL1 161605Z 20009KT 10/01 A3006 RMK A01 T01000006  RH  052%=      5-min Rain = 0
KCL1 161606Z 20011KT 10/01 A3006 RMK A01 T01010006  RH  052%=      5-min Rain = 0
KCL1 161607Z 20009KT 10/01 A3006 RMK A01 T01010005  RH  051%=      5-min Rain = 0
KCL1 161608Z 20009KT 10/01 A3007 RMK A01 T01010005  RH  051%=      5-min Rain = 0
KCL1 161609Z 19010KT 10/01 A3007 RMK A01 T01010005  RH  051%=      5-min Rain = 0
KCL1 161610Z 20009KT 10/01 A3006 RMK A01 T01030007  RH  051%=      5-min Rain = 0
KCL1 161611Z 20010KT 10/01 A3006 RMK A01 T01040006  RH  051%=      5-min Rain = 0
KCL1 161612Z 20010KT 10/01 A3006 RMK A01 T01040006  RH  050%=      5-min Rain = 0
KCL1 161613Z 20009KT 11/01 A3006 RMK A01 T01050006  RH  050%=      5-min Rain = 0
KCL1 161614Z 20009KT 11/01 A3006 RMK A01 T01050007  RH  051%=      5-min Rain = 0
KCL1 161615Z 20009KT 11/01 A3006 RMK A01 T01060006  RH  050%=      5-min Rain = 0
KCL1 161616Z 20008KT 11/01 A3006 RMK A01 T01060007  RH  050%=      5-min Rain = 0
KCL1 161617Z 19009KT 11/01 A3006 RMK A01 T01060007  RH  050%=      5-min Rain = 0
KCL1 161618Z 20007KT 11/01 A3006 RMK A01 T01070006  RH  050%=      5-min Rain = 0
KCL1 161619Z 20011KT 11/01 A3006 RMK A01 T01070006  RH  050%=      5-min Rain = 0
KCL1 161620Z 19011KT 11/01 A3006 RMK A01 T01070006  RH  050%=      5-min Rain = 0
KCL1 161621Z 19009KT 11/01 A3006 RMK A01 T01080007  RH  050%=      5-min Rain = 0
KCL1 161622Z 20009KT 11/01 A3006 RMK A01 T01090008  RH  049%=      5-min Rain = 0
KCL1 161623Z 20008KT 11/01 A3006 RMK A01 T01100007  RH  049%=      5-min Rain = 0
KCL1 161624Z 19008KT 11/01 A3006 RMK A01 T01100008  RH  049%=      5-min Rain = 0
KCL1 161625Z 20007KT 11/01 A3006 RMK A01 T01090007  RH  049%=      5-min Rain = 0
KCL1 161626Z 19007KT 11/01 A3006 RMK A01 T01090008  RH  050%=      5-min Rain = 0
KCL1 161627Z 18006KT 11/01 A3006 RMK A01 T01100009  RH  049%=      5-min Rain = 0
KCL1 161628Z 18008KT 11/01 A3006 RMK A01 T01120011  RH  050%=      5-min Rain = 0
KCL1 161629Z 18007KT 11/01 A3006 RMK A01 T01140010  RH  049%=      5-min Rain = 0
KCL1 161630Z 18008KT 12/01 A3006 RMK A01 T01150011  RH  049%=      5-min Rain = 0
KCL1 161631Z 18008KT 12/01 A3006 RMK A01 T01160010  RH  048%=      5-min Rain = 0
KCL1 161632Z 17008KT 12/01 A3005 RMK A01 T01160011  RH  048%=      5-min Rain = 0
KCL1 161633Z 17008KT 12/01 A3005 RMK A01 T01170012  RH  048%=      5-min Rain = 0
KCL1 161634Z 18007KT 12/01 A3005 RMK A01 T01180011  RH  048%=      5-min Rain = 0
KCL1 161635Z 17008KT 12/01 A3005 RMK A01 T01190012  RH  048%=      5-min Rain = 0
KCL1 161636Z 18008KT 12/01 A3005 RMK A01 T01200012  RH  048%=      5-min Rain = 0
KCL1 161637Z 18009KT 12/01 A3005 RMK A01 T01200012  RH  047%=      5-min Rain = 0
KCL1 161638Z 18008KT 12/01 A3005 RMK A01 T01200011  RH  047%=      5-min Rain = 0
KCL1 161639Z 17009KT 12/01 A3005 RMK A01 T01200012  RH  048%=      5-min Rain = 0
KCL1 161640Z 17007KT 12/01 A3005 RMK A01 T01220013  RH  047%=      5-min Rain = 0
KCL1 161641Z 18008KT 12/01 A3005 RMK A01 T01240014  RH  047%=      5-min Rain = 0
KCL1 161642Z 18008KT 13/01 A3005 RMK A01 T01250014  RH  047%=      5-min Rain = 0
KCL1 161643Z 18007KT 13/01 A3005 RMK A01 T01250014  RH  047%=      5-min Rain = 0
KCL1 161644Z 18009KT 13/01 A3005 RMK A01 T01260014  RH  046%=      5-min Rain = 0
KCL1 161645Z 18009KT 13/01 A3005 RMK A01 T01270013  RH  046%=      5-min Rain = 0
KCL1 161646Z 18008KT 13/02 A3005 RMK A01 T01270015  RH  046%=      5-min Rain = 0
KCL1 161647Z 17008KT 13/02 A3005 RMK A01 T01290015  RH  046%=      5-min Rain = 0
KCL1 161648Z 17010KT 13/02 A3005 RMK A01 T01300016  RH  046%=      5-min Rain = 0
KCL1 161649Z 19008KT 13/02 A3005 RMK A01 T01310016  RH  046%=      5-min Rain = 0
KCL1 161650Z 19009KT 13/02 A3005 RMK A01 T01320015  RH  045%=      5-min Rain = 0
KCL1 161651Z 18008KT 13/02 A3005 RMK A01 T01310015  RH  045%=      5-min Rain = 0
KCL1 161652Z 17009KT 13/02 A3005 RMK A01 T01330018  RH  046%=      5-min Rain = 0
KCL1 161653Z 18010KT 14/02 A3004 RMK A01 T01360017  RH  044%=      5-min Rain = 0
KCL1 161654Z 18009KT 14/02 A3004 RMK A01 T01360017  RH  044%=      5-min Rain = 0
KCL1 161655Z 18008KT 14/02 A3005 RMK A01 T01350016  RH  044%=      5-min Rain = 0
KCL1 161656Z 18011KT 14/02 A3004 RMK A01 T01360016  RH  044%=      5-min Rain = 0
KCL1 161657Z 18010KT 14/02 A3004 RMK A01 T01360016  RH  044%=      5-min Rain = 0
KCL1 161658Z 18008KT 14/02 A3004 RMK A01 T01370017  RH  044%=      5-min Rain = 0
KCL1 161659Z 18010KT 14/02 A3004 RMK A01 T01380018  RH  044%=      5-min Rain = 0
KCL1 161700Z 18010KT 14/02 A3004 RMK A01 T01390017  RH  043%=      5-min Rain = 0
KCL1 161701Z 17010KT 14/02 A3004 RMK A01 T01400017  RH  043%=      5-min Rain = 0
KCL1 161702Z 17011KT 14/02 A3005 RMK A01 T01410017  RH  043%=      5-min Rain = 0
KCL1 161703Z 18008KT 14/02 A3005 RMK A01 T01410017  RH  043%=      5-min Rain = 0
KCL1 161704Z 18008KT 14/02 A3005 RMK A01 T01410016  RH  043%=      5-min Rain = 0
KCL1 161705Z 17010KT 14/02 A3005 RMK A01 T01410017  RH  043%=      5-min Rain = 0
KCL1 161706Z 18010KT 14/02 A3005 RMK A01 T01430017  RH  042%=      5-min Rain = 0
KCL1 161707Z 17009KT 14/02 A3005 RMK A01 T01440017  RH  042%=      5-min Rain = 0
KCL1 161708Z 18009KT 15/02 A3005 RMK A01 T01450017  RH  042%=      5-min Rain = 0
KCL1 161709Z 17010KT 15/02 A3005 RMK A01 T01450017  RH  042%=      5-min Rain = 0
KCL1 161710Z 17008KT 15/02 A3004 RMK A01 T01470019  RH  042%=      5-min Rain = 0
KCL1 161711Z 17009KT 15/02 A3004 RMK A01 T01480020  RH  042%=      5-min Rain = 0
KCL1 161712Z 17009KT 15/02 A3004 RMK A01 T01490020  RH  042%=      5-min Rain = 0
KCL1 161713Z 16010KT 15/02 A3004 RMK A01 T01500018  RH  041%=      5-min Rain = 0
KCL1 161714Z 17009KT 15/02 A3004 RMK A01 T01500020  RH  041%=      5-min Rain = 0
KCL1 161715Z 17008KT 15/02 A3004 RMK A01 T01510019  RH  041%=      5-min Rain = 0
KCL1 161716Z 17009KT 15/02 A3004 RMK A01 T01520022  RH  041%=      5-min Rain = 0
KCL1 161717Z 18009KT 16/02 A3004 RMK A01 T01550021  RH  040%=      5-min Rain = 0
KCL1 161718Z 17008KT 16/02 A3004 RMK A01 T01560019  RH  040%=      5-min Rain = 0
KCL1 161719Z 17007KT 16/02 A3004 RMK A01 T01560020  RH  040%=      5-min Rain = 0
KCL1 161720Z 17009KT 16/02 A3004 RMK A01 T01570021  RH  040%=      5-min Rain = 0
KCL1 161721Z 17011KT 16/02 A3004 RMK A01 T01570018  RH  039%=      5-min Rain = 0
KCL1 161722Z 18008KT 16/02 A3004 RMK A01 T01560018  RH  039%=      5-min Rain = 0
KCL1 161723Z 17009KT 16/02 A3004 RMK A01 T01570018  RH  039%=      5-min Rain = 0
KCL1 161724Z 17008KT 16/02 A3004 RMK A01 T01580021  RH  040%=      5-min Rain = 0
KCL1 161725Z 17008KT 16/02 A3004 RMK A01 T01600019  RH  038%=      5-min Rain = 0
KCL1 161726Z 18009KT 16/02 A3003 RMK A01 T01600018  RH  038%=      5-min Rain = 0
KCL1 161727Z 17010KT 16/02 A3003 RMK A01 T01600018  RH  038%=      5-min Rain = 0
KCL1 161728Z 18013KT 16/02 A3003 RMK A01 T01590015  RH  038%=      5-min Rain = 0
KCL1 161729Z 18012KT 16/01 A3003 RMK A01 T01590014  RH  038%=      5-min Rain = 0
KCL1 161730Z 18010KT 16/02 A3003 RMK A01 T01600015  RH  038%=      5-min Rain = 0
KCL1 161731Z 18011KT 16/02 A3003 RMK A01 T01600016  RH  038%=      5-min Rain = 0
KCL1 161732Z 18012KT 16/02 A3003 RMK A01 T01610016  RH  038%=      5-min Rain = 0
KCL1 161733Z 18009KT 16/01 A3003 RMK A01 T01620013  RH  037%=      5-min Rain = 0
KCL1 161734Z 19013KT 16/02 A3003 RMK A01 T01620015  RH  037%=      5-min Rain = 0
KCL1 161735Z 18012KT 16/02 A3003 RMK A01 T01620015  RH  037%=      5-min Rain = 0
KCL1 161736Z 18010KT 16/01 A3003 RMK A01 T01620014  RH  037%=      5-min Rain = 0
KCL1 161737Z 18010KT 16/02 A3003 RMK A01 T01630015  RH  037%=      5-min Rain = 0
KCL1 161738Z 18010KT 16/02 A3003 RMK A01 T01640017  RH  037%=      5-min Rain = 0
KCL1 161739Z 18010KT 17/02 A3002 RMK A01 T01650015  RH  036%=      5-min Rain = 0
KCL1 161740Z 20013KT 17/01 A3002 RMK A01 T01660014  RH  036%=      5-min Rain = 0
KCL1 161741Z 20012KT 17/01 A3002 RMK A01 T01660009  RH  034%=      5-min Rain = 0
KCL1 161742Z 19010KT 17/01 A3002 RMK A01 T01650007  RH  034%=      5-min Rain = 0
KCL1 161743Z 18011KT 17/01 A3002 RMK A01 T01650011  RH  035%=      5-min Rain = 0
KCL1 161744Z 18012KT 17/01 A3002 RMK A01 T01670012  RH  035%=      5-min Rain = 0
KCL1 161745Z 18012KT 17/01 A3002 RMK A01 T01680013  RH  035%=      5-min Rain = 0
KCL1 161746Z 18012KT 17/01 A3002 RMK A01 T01690011  RH  034%=      5-min Rain = 0
KCL1 161747Z 19010KT 17/01 A3002 RMK A01 T01700013  RH  035%=      5-min Rain = 0
KCL1 161748Z 18009KT 17/01 A3002 RMK A01 T01710012  RH  034%=      5-min Rain = 0
KCL1 161749Z 19008KT 17/01 A3002 RMK A01 T01730014  RH  034%=      5-min Rain = 0
KCL1 161750Z 19009KT 18/01 A3002 RMK A01 T01750012  RH  033%=      5-min Rain = 0
KCL1 161751Z 18010KT 18/02 A3002 RMK A01 T01750016  RH  034%=      5-min Rain = 0
KCL1 161752Z 19010KT 18/01 A3002 RMK A01 T01760014  RH  034%=      5-min Rain = 0
KCL1 161753Z 20011G17KT 18/01 A3002 RMK A01 T01770009  RH  032%=      5-min Rain = 0
KCL1 161754Z 20013KT 18/01 A3002 RMK A01 T01760008  RH  032%=      5-min Rain = 0
KCL1 161755Z 19012KT 18/01 A3002 RMK A01 T01750007  RH  032%=      5-min Rain = 0
KCL1 161756Z 20012KT 18/01 A3001 RMK A01 T01750007  RH  032%=      5-min Rain = 0
KCL1 161757Z 20013KT 18/00 A3001 RMK A01 T01750004  RH  032%=      5-min Rain = 0
KCL1 161758Z 19014KT 18/00 A3001 RMK A01 T01750004  RH  031%=      5-min Rain = 0
KCL1 161759Z 19012KT 18/00 A3001 RMK A01 T01760003  RH  031%=      5-min Rain = 0
KCL1 161800Z 19015KT 18/00 A3001 RMK A01 T01770001  RH  030%=      5-min Rain = 0
KCL1 161801Z 20012G17KT 18/00 A3001 RMK A01 T01770001  RH  031%=      5-min Rain = 0
KCL1 161802Z 20012KT 18/00 A3001 RMK A01 T01770001  RH  030%=      5-min Rain = 0
KCL1 161803Z 20012KT 18/00 A3001 RMK A01 T01770001  RH  030%=      5-min Rain = 0
KCL1 161804Z 19009KT 18/00 A3001 RMK A01 T01770003  RH  031%=      5-min Rain = 0
KCL1 161805Z 19010KT 18/00 A3001 RMK A01 T01790004  RH  031%=      5-min Rain = 0
KCL1 161806Z 18011KT 18/01 A3001 RMK A01 T01810006  RH  031%=      5-min Rain = 0
KCL1 161807Z 19010KT 18/01 A3001 RMK A01 T01820005  RH  030%=      5-min Rain = 0
KCL1 161808Z 19013KT 18/00 A3001 RMK A01 T01830003  RH  030%=      5-min Rain = 0
KCL1 161809Z 19013KT 18/00 A3001 RMK A01 T018200-0  RH  029%=      5-min Rain = 0
KCL1 161810Z 21008KT 18/00 A3001 RMK A01 T018000-0  RH  029%=      5-min Rain = 0
KCL1 161811Z 19013KT 18/00 A3001 RMK A01 T01810001  RH  030%=      5-min Rain = 0
KCL1 161812Z 20013KT 18/00 A3001 RMK A01 T018100-0  RH  029%=      5-min Rain = 0
KCL1 161813Z 19012KT 18/00 A30 RMK A01 T01800001  RH  030%=      5-min Rain = 0
KCL1 161814Z 20008KT 18/00 A3001 RMK A01 T01800002  RH  030%=      5-min Rain = 0
KCL1 161815Z 19011KT 18/00 A30 RMK A01 T01810002  RH  030%=      5-min Rain = 0
KCL1 161816Z 20012KT 18/00 A30 RMK A01 T01830000  RH  029%=      5-min Rain = 0
KCL1 161817Z 19013G18KT 18/M00 A30 RMK A01 T01821001  RH  029%=      5-min Rain = 0
KCL1 161818Z 19015KT 18/M00 A30 RMK A01 T01821002  RH  029%=      5-min Rain = 0
KCL1 161819Z 19012KT 18/M00 A30 RMK A01 T01811002  RH  029%=      5-min Rain = 0
KCL1 161820Z 19011KT 18/M00 A30 RMK A01 T01811001  RH  029%=      5-min Rain = 0
KCL1 161821Z 19013KT 18/M00 A30 RMK A01 T01821001  RH  029%=      5-min Rain = 0
KCL1 161822Z 19014G19KT 18/M00 A30 RMK A01 T01821002  RH  029%=      5-min Rain = 0
KCL1 161823Z 20013KT 18/M00 A30 RMK A01 T01831001  RH  029%=      5-min Rain = 0
KCL1 161824Z 19014KT 18/M00 A30 RMK A01 T01821001  RH  029%=      5-min Rain = 0
KCL1 161825Z 20011G16KT 18/M00 A30 RMK A01 T01821002  RH  029%=      5-min Rain = 0
KCL1 161826Z 19010G15KT 18/00 A30 RMK A01 T018300-0  RH  029%=      5-min Rain = 0
KCL1 161827Z 19013KT 19/00 A30 RMK A01 T018500-0  RH  029%=      5-min Rain = 0
KCL1 161828Z 19012KT 19/00 A30 RMK A01 T01850001  RH  029%=      5-min Rain = 0
KCL1 161829Z 21006KT 19/00 A30 RMK A01 T01860000  RH  029%=      5-min Rain = 0
KCL1 161830Z 20008G14KT 19/00 A30 RMK A01 T01870003  RH  029%=      5-min Rain = 0
KCL1 161831Z 20014KT 19/00 A30 RMK A01 T01880002  RH  028%=      5-min Rain = 0
KCL1 161832Z 20014G19KT 19/M00 A2999 RMK A01 T01871001  RH  028%=      5-min Rain = 0
KCL1 161833Z 20012KT 19/M00 A2999 RMK A01 T01861002  RH  028%=      5-min Rain = 0
KCL1 161834Z 19014KT 19/M00 A2999 RMK A01 T01861002  RH  028%=      5-min Rain = 0
KCL1 161835Z 20014KT 19/M00 A2999 RMK A01 T01861001  RH  028%=      5-min Rain = 0
KCL1 161836Z 19014KT 19/M00 A2999 RMK A01 T01861001  RH  028%=      5-min Rain = 0
KCL1 161837Z 20013KT 19/M00 A2999 RMK A01 T01861001  RH  028%=      5-min Rain = 0
KCL1 161838Z 19015KT 19/M00 A2999 RMK A01 T01861002  RH  028%=      5-min Rain = 0
KCL1 161839Z 20010G15KT 19/M00 A2999 RMK A01 T01871002  RH  028%=      5-min Rain = 0
KCL1 161840Z 19012KT 19/M00 A2999 RMK A01 T01871001  RH  028%=      5-min Rain = 0
KCL1 161841Z 19014KT 19/M00 A2999 RMK A01 T01871001  RH  028%=      5-min Rain = 0
KCL1 161842Z 18009KT 19/M00 A2999 RMK A01 T01881002  RH  028%=      5-min Rain = 0
KCL1 161843Z 19008KT 19/M00 A2999 RMK A01 T01891001  RH  028%=      5-min Rain = 0
KCL1 161844Z 19011KT 19/00 A2999 RMK A01 T019000-0  RH  028%=      5-min Rain = 0
KCL1 161845Z 18010KT 19/00 A2999 RMK A01 T01910000  RH  028%=      5-min Rain = 0
KCL1 161846Z 18013KT 19/00 A2999 RMK A01 T01930002  RH  028%=      5-min Rain = 0
KCL1 161847Z 18013KT 19/00 A2998 RMK A01 T01940001  RH  027%=      5-min Rain = 0
KCL1 161848Z 19012KT 19/00 A2998 RMK A01 T01940001  RH  027%=      5-min Rain = 0
KCL1 161849Z 18012KT 19/00 A2998 RMK A01 T01940001  RH  027%=      5-min Rain = 0
KCL1 161850Z 19010KT 20/00 A2998 RMK A01 T01950002  RH  027%=      5-min Rain = 0
KCL1 161851Z 18013KT 20/00 A2998 RMK A01 T01960002  RH  027%=      5-min Rain = 0
KCL1 161852Z 18012KT 20/00 A2998 RMK A01 T019700-0  RH  027%=      5-min Rain = 0
KCL1 161853Z 19012KT 20/M00 A2998 RMK A01 T01961001  RH  027%=      5-min Rain = 0
KCL1 161854Z 19011KT 20/M00 A2998 RMK A01 T01951002  RH  027%=      5-min Rain = 0
KCL1 161855Z 19011KT 20/00 A2998 RMK A01 T019500-0  RH  027%=      5-min Rain = 0
KCL1 161856Z 19013KT 20/M00 A2998 RMK A01 T01971001  RH  026%=      5-min Rain = 0
KCL1 161857Z 19012G17KT 20/M00 A2998 RMK A01 T01971002  RH  026%=      5-min Rain = 0
KCL1 161858Z 18012KT 20/M00 A2997 RMK A01 T01971001  RH  026%=      5-min Rain = 0
KCL1 161859Z 19011KT 20/00 A2997 RMK A01 T019700-0  RH  026%=      5-min Rain = 0
KCL1 161900Z 19010KT 20/M00 A2997 RMK A01 T01981001  RH  026%=      5-min Rain = 0
KCL1 161901Z 19013KT 20/M00 A2997 RMK A01 T01981003  RH  026%=      5-min Rain = 0
KCL1 161902Z 20011KT 20/M00 A2997 RMK A01 T01971003  RH  026%=      5-min Rain = 0
KCL1 161903Z 20012KT 20/M00 A2997 RMK A01 T01961004  RH  026%=      5-min Rain = 0
KCL1 161904Z 19010KT 20/M00 A2997 RMK A01 T01961004  RH  026%=      5-min Rain = 0
KCL1 161905Z 20011KT 20/M00 A2997 RMK A01 T01951002  RH  027%=      5-min Rain = 0
KCL1 161906Z 17007KT 20/M00 A2997 RMK A01 T01951001  RH  027%=      5-min Rain = 0
KCL1 161907Z 19007KT 20/00 A2997 RMK A01 T01970002  RH  027%=      5-min Rain = 0
KCL1 161908Z 19008KT 20/00 A2997 RMK A01 T02000003  RH  027%=      5-min Rain = 0
KCL1 161909Z 20009KT 20/00 A2997 RMK A01 T02010001  RH  026%=      5-min Rain = 0
KCL1 161910Z 20009KT 20/00 A2997 RMK A01 T02000002  RH  026%=      5-min Rain = 0
KCL1 161911Z 18010KT 20/00 A2997 RMK A01 T02000002  RH  026%=      5-min Rain = 0
KCL1 161912Z 17013KT 20/00 A2996 RMK A01 T02010002  RH  026%=      5-min Rain = 0
KCL1 161913Z 17010KT 20/00 A2996 RMK A01 T01990001  RH  027%=      5-min Rain = 0
KCL1 161914Z 17010KT 20/00 A2996 RMK A01 T01980002  RH  027%=      5-min Rain = 0
KCL1 161915Z 17010KT 20/00 A2996 RMK A01 T01990003  RH  027%=      5-min Rain = 0
KCL1 161916Z 18011KT 20/00 A2996 RMK A01 T01990003  RH  027%=      5-min Rain = 0
KCL1 161917Z 16014KT 20/00 A2996 RMK A01 T01970002  RH  027%=      5-min Rain = 0
KCL1 161918Z 17011KT 20/00 A2996 RMK A01 T01970002  RH  027%=      5-min Rain = 0
KCL1 161919Z 17013KT 20/00 A2996 RMK A01 T01970003  RH  027%=      5-min Rain = 0
KCL1 161920Z 16012KT 20/00 A2996 RMK A01 T01980001  RH  027%=      5-min Rain = 0
KCL1 161921Z 16015KT 20/00 A2996 RMK A01 T01980002  RH  027%=      5-min Rain = 0
KCL1 161922Z 16012KT 20/00 A2996 RMK A01 T01980000  RH  027%=      5-min Rain = 0
KCL1 161923Z 16012KT 20/00 A2996 RMK A01 T01980001  RH  027%=      5-min Rain = 0
KCL1 161924Z 16015KT 20/00 A2996 RMK A01 T01990000  RH  026%=      5-min Rain = 0
KCL1 161925Z 16012KT 20/M00 A2996 RMK A01 T01991001  RH  026%=      5-min Rain = 0
KCL1 161926Z 18013KT 20/00 A2996 RMK A01 T01990000  RH  026%=      5-min Rain = 0
KCL1 161927Z 19011KT 20/M00 A2996 RMK A01 T01991001  RH  026%=      5-min Rain = 0
KCL1 161928Z 18012KT 20/M00 A2996 RMK A01 T01981001  RH  026%=      5-min Rain = 0
KCL1 161929Z 17009KT 20/00 A2996 RMK A01 T01990001  RH  026%=      5-min Rain = 0
KCL1 161930Z 17009KT 20/00 A2996 RMK A01 T020100-0  RH  026%=      5-min Rain = 0
KCL1 161931Z 18012KT 20/00 A2996 RMK A01 T02030002  RH  026%=      5-min Rain = 0
KCL1 161932Z 18009KT 20/00 A2996 RMK A01 T020400-0  RH  026%=      5-min Rain = 0
KCL1 161933Z 17013KT 20/00 A2996 RMK A01 T020300-0  RH  026%=      5-min Rain = 0
KCL1 161934Z 17012KT 20/00 A2996 RMK A01 T020200-0  RH  026%=      5-min Rain = 0
KCL1 161935Z 17013KT 20/00 A2996 RMK A01 T02020000  RH  026%=      5-min Rain = 0
KCL1 161936Z 18008KT 20/00 A2996 RMK A01 T020300-0  RH  026%=      5-min Rain = 0
KCL1 161937Z 18010KT 20/00 A2996 RMK A01 T02040002  RH  026%=      5-min Rain = 0
KCL1 161938Z 17011KT 21/00 A2995 RMK A01 T02060004  RH  026%=      5-min Rain = 0
KCL1 161939Z 18009KT 21/01 A2995 RMK A01 T02070005  RH  026%=      5-min Rain = 0
KCL1 161940Z 19009KT 21/01 A2996 RMK A01 T02080005  RH  026%=      5-min Rain = 0
KCL1 161941Z 17011KT 21/00 A2995 RMK A01 T02090001  RH  025%=      5-min Rain = 0
KCL1 161942Z 17010KT 21/00 A2995 RMK A01 T02080003  RH  025%=      5-min Rain = 0
KCL1 161943Z 20009KT 21/00 A2995 RMK A01 T02080003  RH  025%=      5-min Rain = 0
KCL1 161944Z 19010KT 21/M00 A2995 RMK A01 T02071001  RH  025%=      5-min Rain = 0
KCL1 161945Z 19012KT 21/M00 A2995 RMK A01 T02051002  RH  025%=      5-min Rain = 0
KCL1 161946Z 19011KT 20/M00 A2995 RMK A01 T02041002  RH  025%=      5-min Rain = 0
KCL1 161947Z 18010KT 20/M00 A2995 RMK A01 T02041003  RH  025%=      5-min Rain = 0
KCL1 161948Z 19011KT 20/M00 A2995 RMK A01 T02031003  RH  025%=      5-min Rain = 0
KCL1 161949Z 17011KT 20/M00 A2995 RMK A01 T02041001  RH  025%=      5-min Rain = 0
KCL1 161950Z 17012KT 21/00 A2995 RMK A01 T02050000  RH  025%=      5-min Rain = 0
KCL1 161951Z 18011KT 21/00 A2995 RMK A01 T02050001  RH  025%=      5-min Rain = 0
KCL1 161952Z 18012KT 21/00 A2995 RMK A01 T02060000  RH  025%=      5-min Rain = 0
KCL1 161953Z 16012KT 21/00 A2995 RMK A01 T02060000  RH  025%=      5-min Rain = 0
KCL1 161954Z 16012KT 21/00 A2994 RMK A01 T02060002  RH  026%=      5-min Rain = 0
KCL1 161955Z 17013G18KT 21/00 A2994 RMK A01 T02060002  RH  026%=      5-min Rain = 0
KCL1 161956Z 17015KT 21/00 A2994 RMK A01 T02080001  RH  025%=      5-min Rain = 0
KCL1 161957Z 18011KT 21/00 A2994 RMK A01 T02060001  RH  025%=      5-min Rain = 0
KCL1 161958Z 17010KT 21/00 A2994 RMK A01 T02060001  RH  025%=      5-min Rain = 0
KCL1 161959Z 18010KT 21/00 A2994 RMK A01 T02060001  RH  025%=      5-min Rain = 0
KCL1 162000Z 18010KT 21/00 A2994 RMK A01 T02070002  RH  026%=      5-min Rain = 0
KCL1 162001Z 18011KT 21/00 A2994 RMK A01 T02070001  RH  025%=      5-min Rain = 0
KCL1 162002Z 17011KT 21/00 A2994 RMK A01 T02070000  RH  025%=      5-min Rain = 0
KCL1 162003Z 17011KT 21/00 A2994 RMK A01 T02060000  RH  025%=      5-min Rain = 0
KCL1 162004Z 17011KT 21/00 A2994 RMK A01 T02060003  RH  026%=      5-min Rain = 0
KCL1 162005Z 17014KT 21/00 A2994 RMK A01 T02070001  RH  025%=      5-min Rain = 0
KCL1 162006Z 17015KT 21/00 A2994 RMK A01 T02060000  RH  025%=      5-min Rain = 0
KCL1 162007Z 17012KT 21/00 A2994 RMK A01 T02050000  RH  025%=      5-min Rain = 0
KCL1 162008Z 20013KT 20/00 A2994 RMK A01 T02040001  RH  026%=      5-min Rain = 0
KCL1 162009Z 18013KT 20/M00 A2994 RMK A01 T02041002  RH  025%=      5-min Rain = 0
KCL1 162010Z 18014KT 20/M00 A2994 RMK A01 T02021002  RH  026%=      5-min Rain = 0
KCL1 162011Z 17014KT 20/M00 A2994 RMK A01 T02011002  RH  026%=      5-min Rain = 0
KCL1 162012Z 17011KT 20/M00 A2994 RMK A01 T02001002  RH  026%=      5-min Rain = 0
KCL1 162013Z 17013KT 20/M00 A2994 RMK A01 T01991001  RH  026%=      5-min Rain = 0
KCL1 162014Z 17013KT 20/00 A2994 RMK A01 T01990000  RH  026%=      5-min Rain = 0
KCL1 162015Z 17013KT 20/M00 A2994 RMK A01 T01991002  RH  026%=      5-min Rain = 0
KCL1 162016Z 17012KT 20/M00 A2994 RMK A01 T01981003  RH  026%=      5-min Rain = 0
KCL1 162017Z 17012KT 20/M00 A2994 RMK A01 T01971002  RH  026%=      5-min Rain = 0
KCL1 162018Z 18013KT 20/M00 A2994 RMK A01 T01971001  RH  027%=      5-min Rain = 0
KCL1 162019Z 18012KT 20/M00 A2994 RMK A01 T01971001  RH  027%=      5-min Rain = 0
KCL1 162020Z 18012KT 20/M00 A2994 RMK A01 T01971001  RH  027%=      5-min Rain = 0
KCL1 162021Z 17009KT 20/M00 A2994 RMK A01 T01961001  RH  027%=      5-min Rain = 0
KCL1 162022Z 17012KT 20/M00 A2994 RMK A01 T01961001  RH  027%=      5-min Rain = 0
KCL1 162023Z 17013KT 20/00 A2993 RMK A01 T01960000  RH  027%=      5-min Rain = 0
KCL1 162024Z 18011KT 20/00 A2993 RMK A01 T01950001  RH  027%=      5-min Rain = 0
KCL1 162025Z 18014KT 20/00 A2993 RMK A01 T01960001  RH  027%=      5-min Rain = 0
KCL1 162026Z 17015KT 20/00 A2993 RMK A01 T01960000  RH  027%=      5-min Rain = 0
KCL1 162027Z 17012KT 20/00 A2993 RMK A01 T01950001  RH  027%=      5-min Rain = 0
KCL1 162028Z 18010KT 19/00 A2993 RMK A01 T01940001  RH  027%=      5-min Rain = 0
KCL1 162029Z 17014KT 19/00 A2993 RMK A01 T01940001  RH  027%=      5-min Rain = 0
KCL1 162030Z 17012KT 19/00 A2993 RMK A01 T01940001  RH  027%=      5-min Rain = 0
KCL1 162031Z 18013KT 19/00 A2993 RMK A01 T01930003  RH  028%=      5-min Rain = 0
KCL1 162032Z 17015KT 19/00 A2993 RMK A01 T01930001  RH  028%=      5-min Rain = 0
KCL1 162033Z 17014KT 19/00 A2993 RMK A01 T01920001  RH  028%=      5-min Rain = 0
KCL1 162034Z 18012KT 19/00 A2993 RMK A01 T01910001  RH  028%=      5-min Rain = 0
KCL1 162035Z 18013KT 19/00 A2993 RMK A01 T01910001  RH  028%=      5-min Rain = 0
KCL1 162036Z 18014KT 19/00 A2993 RMK A01 T01910001  RH  028%=      5-min Rain = 0
KCL1 162037Z 17012KT 19/00 A2993 RMK A01 T01910001  RH  028%=      5-min Rain = 0
KCL1 162038Z 18013KT 19/00 A2993 RMK A01 T01910003  RH  028%=      5-min Rain = 0
KCL1 162039Z 17016KT 19/00 A2993 RMK A01 T01910001  RH  028%=      5-min Rain = 0
KCL1 162040Z 17014KT 19/00 A2992 RMK A01 T01900001  RH  028%=      5-min Rain = 0
KCL1 162041Z 17015KT 19/00 A2992 RMK A01 T01900002  RH  028%=      5-min Rain = 0
KCL1 162042Z 18014KT 19/00 A2992 RMK A01 T01900001  RH  028%=      5-min Rain = 0
KCL1 162043Z 18015KT 19/00 A2992 RMK A01 T01900001  RH  028%=      5-min Rain = 0
KCL1 162044Z 18014KT 19/00 A2992 RMK A01 T01900001  RH  028%=      5-min Rain = 0
KCL1 162045Z 17015KT 19/00 A2992 RMK A01 T01900000  RH  028%=      5-min Rain = 0
KCL1 162046Z 18013KT 19/00 A2992 RMK A01 T01900000  RH  028%=      5-min Rain = 0
KCL1 162047Z 18013KT 19/00 A2992 RMK A01 T01900000  RH  028%=      5-min Rain = 0
KCL1 162048Z 18012KT 19/00 A2992 RMK A01 T01900001  RH  028%=      5-min Rain = 0
KCL1 162049Z 17014KT 19/00 A2992 RMK A01 T01910002  RH  028%=      5-min Rain = 0
KCL1 162050Z 18013G19KT 19/00 A2992 RMK A01 T01910001  RH  028%=      5-min Rain = 0
KCL1 162051Z 18013G19KT 19/00 A2992 RMK A01 T01910001  RH  028%=      5-min Rain = 0
KCL1 162052Z 18015KT 19/00 A2992 RMK A01 T01900000  RH  028%=      5-min Rain = 0
KCL1 162053Z 18014KT 19/M00 A2992 RMK A01 T01891001  RH  028%=      5-min Rain = 0
KCL1 162054Z 18014KT 19/00 A2992 RMK A01 T018900-0  RH  028%=      5-min Rain = 0
KCL1 162055Z 18014KT 19/M00 A2992 RMK A01 T01881001  RH  028%=      5-min Rain = 0
KCL1 162056Z 18015KT 19/M00 A2992 RMK A01 T01881001  RH  028%=      5-min Rain = 0
KCL1 162057Z 19012KT 19/M00 A2992 RMK A01 T01881001  RH  028%=      5-min Rain = 0
KCL1 162058Z 20011KT 19/M00 A2992 RMK A01 T01881001  RH  028%=      5-min Rain = 0
KCL1 162059Z 19012KT 19/M00 A2992 RMK A01 T01881001  RH  028%=      5-min Rain = 0
KCL1 162100Z 18012KT 19/00 A2992 RMK A01 T018700-0  RH  028%=      5-min Rain = 0
KCL1 162101Z 18011KT 19/00 A2992 RMK A01 T01870001  RH  029%=      5-min Rain = 0
KCL1 162102Z 18010KT 19/00 A2992 RMK A01 T01870002  RH  029%=      5-min Rain = 0
KCL1 162103Z 18011KT 19/00 A2992 RMK A01 T01880001  RH  028%=      5-min Rain = 0
KCL1 162104Z 17013KT 19/00 A2992 RMK A01 T01880001  RH  028%=      5-min Rain = 0
KCL1 162105Z 18011KT 19/00 A2992 RMK A01 T01870001  RH  028%=      5-min Rain = 0
KCL1 162106Z 19012KT 19/00 A2992 RMK A01 T018700-0  RH  028%=      5-min Rain = 0
KCL1 162107Z 19012KT 19/00 A2992 RMK A01 T018700-0  RH  028%=      5-min Rain = 0
KCL1 162108Z 18011KT 19/00 A2992 RMK A01 T01870000  RH  029%=      5-min Rain = 0
KCL1 162109Z 18014KT 19/00 A2992 RMK A01 T018600-0  RH  028%=      5-min Rain = 0
KCL1 162110Z 19015KT 19/M00 A2992 RMK A01 T01871001  RH  028%=      5-min Rain = 0
KCL1 162111Z 18011KT 19/M00 A2992 RMK A01 T01861001  RH  028%=      5-min Rain = 0
KCL1 162112Z 17009KT 19/00 A2992 RMK A01 T01860001  RH  029%=      5-min Rain = 0
KCL1 162113Z 18011KT 19/00 A2992 RMK A01 T01850001  RH  029%=      5-min Rain = 0
KCL1 162114Z 18012KT 19/00 A2992 RMK A01 T01850001  RH  029%=      5-min Rain = 0
KCL1 162115Z 17014KT 19/00 A2992 RMK A01 T018500-0  RH  029%=      5-min Rain = 0
KCL1 162116Z 17012KT 18/00 A2992 RMK A01 T01840000  RH  029%=      5-min Rain = 0
KCL1 162117Z 19012KT 18/00 A2992 RMK A01 T01840000  RH  029%=      5-min Rain = 0
KCL1 162118Z 18014KT 18/M00 A2992 RMK A01 T01841001  RH  029%=      5-min Rain = 0
KCL1 162119Z 18015KT 18/M00 A2992 RMK A01 T01831001  RH  029%=      5-min Rain = 0
KCL1 162120Z 18016KT 18/M00 A2992 RMK A01 T01831001  RH  029%=      5-min Rain = 0
KCL1 162121Z 18014KT 18/M00 A2992 RMK A01 T01831001  RH  029%=      5-min Rain = 0
KCL1 162122Z 18012G17KT 18/M00 A2992 RMK A01 T01831001  RH  029%=      5-min Rain = 0
KCL1 162123Z 18014KT 18/00 A2992 RMK A01 T018200-0  RH  029%=      5-min Rain = 0
KCL1 162124Z 19015KT 18/M00 A2992 RMK A01 T01821001  RH  029%=      5-min Rain = 0
KCL1 162125Z 19014KT 18/M00 A2992 RMK A01 T01821001  RH  029%=      5-min Rain = 0
KCL1 162126Z 19013KT 18/M00 A2992 RMK A01 T01821001  RH  029%=      5-min Rain = 0
KCL1 162127Z 19013KT 18/M00 A2992 RMK A01 T01821001  RH  029%=      5-min Rain = 0
KCL1 162128Z 19012KT 18/M00 A2992 RMK A01 T01821001  RH  029%=      5-min Rain = 0
KCL1 162129Z 19010G17KT 18/M00 A2992 RMK A01 T01821001  RH  029%=      5-min Rain = 0
KCL1 162130Z 18015KT 18/M00 A2992 RMK A01 T01821001  RH  029%=      5-min Rain = 0
KCL1 162131Z 18015KT 18/M00 A2992 RMK A01 T01821001  RH  029%=      5-min Rain = 0
KCL1 162132Z 18013KT 18/M00 A2992 RMK A01 T01821001  RH  029%=      5-min Rain = 0
KCL1 162133Z 19010KT 18/00 A2993 RMK A01 T01820001  RH  029%=      5-min Rain = 0
KCL1 162134Z 18010KT 18/00 A2993 RMK A01 T01830001  RH  029%=      5-min Rain = 0
KCL1 162135Z 18010KT 18/00 A2993 RMK A01 T01830002  RH  029%=      5-min Rain = 0
KCL1 162136Z 19012KT 18/00 A2992 RMK A01 T01840002  RH  029%=      5-min Rain = 0
KCL1 162137Z 18012KT 18/00 A2993 RMK A01 T01840001  RH  029%=      5-min Rain = 0
KCL1 162138Z 18009KT 18/00 A2993 RMK A01 T01830001  RH  029%=      5-min Rain = 0
KCL1 162139Z 18009KT 18/00 A2992 RMK A01 T01830002  RH  029%=      5-min Rain = 0
KCL1 162140Z 19012KT 18/00 A2992 RMK A01 T01840002  RH  029%=      5-min Rain = 0
KCL1 162141Z 18010KT 18/00 A2992 RMK A01 T01840002  RH  029%=      5-min Rain = 0
KCL1 162142Z 17010KT 18/00 A2992 RMK A01 T01840002  RH  029%=      5-min Rain = 0
KCL1 162143Z 19010KT 18/00 A2992 RMK A01 T01840003  RH  030%=      5-min Rain = 0
KCL1 162144Z 17011KT 18/00 A2992 RMK A01 T01840003  RH  029%=      5-min Rain = 0
KCL1 162145Z 16010KT 19/00 A2992 RMK A01 T01850003  RH  029%=      5-min Rain = 0
KCL1 162146Z 18011KT 19/00 A2992 RMK A01 T01850002  RH  029%=      5-min Rain = 0
KCL1 162147Z 18009KT 18/00 A2992 RMK A01 T01840003  RH  029%=      5-min Rain = 0
KCL1 162148Z 18008KT 18/00 A2992 RMK A01 T01840004  RH  030%=      5-min Rain = 0
KCL1 162149Z 17009KT 18/00 A2992 RMK A01 T01840004  RH  030%=      5-min Rain = 0
KCL1 162150Z 18011KT 18/00 A2992 RMK A01 T01840004  RH  030%=      5-min Rain = 0
KCL1 162151Z 17010KT 18/00 A2992 RMK A01 T01840003  RH  029%=      5-min Rain = 0
KCL1 162152Z 18010KT 18/00 A2992 RMK A01 T01830004  RH  030%=      5-min Rain = 0
KCL1 162153Z 17012G17KT 18/00 A2992 RMK A01 T01830003  RH  030%=      5-min Rain = 0
KCL1 162154Z 17012KT 18/00 A2992 RMK A01 T01820003  RH  030%=      5-min Rain = 0
KCL1 162155Z 17013KT 18/00 A2992 RMK A01 T01810001  RH  030%=      5-min Rain = 0
KCL1 162156Z 17011KT 18/00 A2992 RMK A01 T01810001  RH  030%=      5-min Rain = 0
KCL1 162157Z 17012KT 18/00 A2992 RMK A01 T01800001  RH  030%=      5-min Rain = 0
KCL1 162158Z 17013KT 18/00 A2992 RMK A01 T01800001  RH  030%=      5-min Rain = 0
KCL1 162159Z 18013KT 18/00 A2992 RMK A01 T01790001  RH  030%=      5-min Rain = 0
KCL1 162200Z 17011KT 18/00 A2993 RMK A01 T01790001  RH  030%=      5-min Rain = 0
KCL1 162201Z 17014KT 18/00 A2992 RMK A01 T01790001  RH  030%=      5-min Rain = 0
KCL1 162202Z 17012KT 18/00 A2993 RMK A01 T01790001  RH  030%=      5-min Rain = 0
KCL1 162203Z 18012KT 18/00 A2993 RMK A01 T01780002  RH  030%=      5-min Rain = 0
KCL1 162204Z 19012KT 18/00 A2993 RMK A01 T01780002  RH  030%=      5-min Rain = 0
KCL1 162205Z 18011KT 18/00 A2993 RMK A01 T01780002  RH  030%=      5-min Rain = 0
KCL1 162206Z 18011KT 18/00 A2993 RMK A01 T01780001  RH  030%=      5-min Rain = 0
KCL1 162207Z 18010KT 18/00 A2993 RMK A01 T01780002  RH  030%=      5-min Rain = 0
KCL1 162208Z 19012KT 18/00 A2993 RMK A01 T01780002  RH  030%=      5-min Rain = 0
KCL1 162209Z 19009KT 18/00 A2993 RMK A01 T01770001  RH  030%=      5-min Rain = 0
KCL1 162210Z 19012KT 18/00 A2993 RMK A01 T01770002  RH  031%=      5-min Rain = 0
KCL1 162211Z 19010KT 18/00 A2993 RMK A01 T01770001  RH  030%=      5-min Rain = 0
KCL1 162212Z 19012KT 18/00 A2993 RMK A01 T01760001  RH  031%=      5-min Rain = 0
KCL1 162213Z 18010G15KT 18/00 A2993 RMK A01 T01760001  RH  031%=      5-min Rain = 0
KCL1 162214Z 18014KT 18/00 A2993 RMK A01 T01750001  RH  031%=      5-min Rain = 0
KCL1 162215Z 18013KT 18/00 A2993 RMK A01 T01750001  RH  031%=      5-min Rain = 0
KCL1 162216Z 17012KT 18/00 A2993 RMK A01 T01750001  RH  031%=      5-min Rain = 0
KCL1 162217Z 18013KT 17/00 A2993 RMK A01 T01740001  RH  031%=      5-min Rain = 0
KCL1 162218Z 18013KT 17/00 A2994 RMK A01 T01740001  RH  031%=      5-min Rain = 0
KCL1 162219Z 18011KT 17/00 A2994 RMK A01 T01730001  RH  031%=      5-min Rain = 0
KCL1 162220Z 19009KT 17/00 A2994 RMK A01 T01730002  RH  031%=      5-min Rain = 0
KCL1 162221Z 19011KT 17/00 A2994 RMK A01 T01730001  RH  031%=      5-min Rain = 0
KCL1 162222Z 19009KT 17/00 A2994 RMK A01 T01730001  RH  031%=      5-min Rain = 0
KCL1 162223Z 18008KT 17/00 A2994 RMK A01 T01720002  RH  031%=      5-min Rain = 0
KCL1 162224Z 18011KT 17/00 A2993 RMK A01 T01720002  RH  032%=      5-min Rain = 0
KCL1 162225Z 18012G17KT 17/00 A2993 RMK A01 T01720001  RH  032%=      5-min Rain = 0
KCL1 162226Z 18011KT 17/00 A2994 RMK A01 T01710001  RH  032%=      5-min Rain = 0
KCL1 162227Z 19013KT 17/00 A2994 RMK A01 T01700001  RH  032%=      5-min Rain = 0
KCL1 162228Z 18013KT 17/00 A2994 RMK A01 T01700001  RH  032%=      5-min Rain = 0
KCL1 162229Z 18015KT 17/00 A2994 RMK A01 T01690001  RH  032%=      5-min Rain = 0
KCL1 162230Z 18012KT 17/00 A2994 RMK A01 T01690001  RH  032%=      5-min Rain = 0
KCL1 162231Z 18014KT 17/00 A2994 RMK A01 T01690002  RH  032%=      5-min Rain = 0
KCL1 162232Z 17012KT 17/00 A2994 RMK A01 T01680002  RH  032%=      5-min Rain = 0
KCL1 162233Z 18012KT 17/00 A2994 RMK A01 T01680002  RH  033%=      5-min Rain = 0
KCL1 162234Z 18010KT 17/00 A2994 RMK A01 T01670003  RH  033%=      5-min Rain = 0
KCL1 162235Z 18011KT 17/00 A2994 RMK A01 T01670004  RH  033%=      5-min Rain = 0
KCL1 162236Z 18011KT 17/00 A2994 RMK A01 T01660004  RH  033%=      5-min Rain = 0
KCL1 162237Z 18011KT 17/00 A2994 RMK A01 T01660004  RH  033%=      5-min Rain = 0
KCL1 162238Z 18013KT 17/00 A2994 RMK A01 T01650004  RH  033%=      5-min Rain = 0
KCL1 162239Z 18011KT 17/00 A2994 RMK A01 T01660004  RH  033%=      5-min Rain = 0
KCL1 162240Z 18010KT 17/00 A2994 RMK A01 T01650004  RH  034%=      5-min Rain = 0
KCL1 162241Z 18009KT 17/01 A2994 RMK A01 T01650005  RH  034%=      5-min Rain = 0
KCL1 162242Z 17010KT 17/01 A2994 RMK A01 T01650005  RH  034%=      5-min Rain = 0
KCL1 162243Z 17012KT 16/01 A2994 RMK A01 T01640005  RH  034%=      5-min Rain = 0
KCL1 162244Z 17011KT 16/01 A2993 RMK A01 T01640005  RH  034%=      5-min Rain = 0
KCL1 162245Z 17013KT 16/01 A2993 RMK A01 T01630005  RH  034%=      5-min Rain = 0
KCL1 162246Z 18012KT 16/01 A2993 RMK A01 T01630005  RH  034%=      5-min Rain = 0
KCL1 162247Z 18009KT 16/01 A2993 RMK A01 T01630005  RH  034%=      5-min Rain = 0
KCL1 162248Z 18009KT 16/01 A2993 RMK A01 T01620005  RH  034%=      5-min Rain = 0
KCL1 162249Z 17011KT 16/01 A2993 RMK A01 T01620006  RH  035%=      5-min Rain = 0
KCL1 162250Z 18012KT 16/01 A2993 RMK A01 T01620005  RH  035%=      5-min Rain = 0
KCL1 162251Z 18011KT 16/01 A2993 RMK A01 T01620005  RH  034%=      5-min Rain = 0
KCL1 162252Z 17011KT 16/01 A2993 RMK A01 T01620005  RH  034%=      5-min Rain = 0
KCL1 162253Z 18009KT 16/01 A2994 RMK A01 T01620005  RH  034%=      5-min Rain = 0
KCL1 162254Z 18009KT 16/01 A2994 RMK A01 T01620006  RH  035%=      5-min Rain = 0
KCL1 162255Z 18009KT 16/01 A2994 RMK A01 T01620005  RH  035%=      5-min Rain = 0
KCL1 162256Z 18008KT 16/01 A2994 RMK A01 T01620005  RH  035%=      5-min Rain = 0
KCL1 162257Z 18008KT 16/01 A2994 RMK A01 T01620006  RH  035%=      5-min Rain = 0
KCL1 162258Z 19009KT 16/01 A2994 RMK A01 T01620005  RH  034%=      5-min Rain = 0
KCL1 162259Z 19008KT 16/01 A2994 RMK A01 T01630005  RH  034%=      5-min Rain = 0
KCL1 162300Z 18008KT 16/01 A2994 RMK A01 T01630005  RH  034%=      5-min Rain = 0
KCL1 162301Z 19006KT 16/01 A2994 RMK A01 T01630005  RH  034%=      5-min Rain = 0
KCL1 162302Z 18008KT 16/01 A2994 RMK A01 T01640006  RH  034%=      5-min Rain = 0
KCL1 162303Z 17009KT 16/01 A2994 RMK A01 T01640006  RH  034%=      5-min Rain = 0
KCL1 162304Z 18008KT 16/01 A2994 RMK A01 T01630006  RH  034%=      5-min Rain = 0
KCL1 162305Z 18007KT 16/01 A2994 RMK A01 T01640006  RH  034%=      5-min Rain = 0
KCL1 162306Z 17007KT 16/01 A2994 RMK A01 T01630006  RH  034%=      5-min Rain = 0
KCL1 162307Z 18008KT 16/01 A2994 RMK A01 T01630005  RH  034%=      5-min Rain = 0
KCL1 162308Z 18008KT 16/01 A2994 RMK A01 T01630005  RH  034%=      5-min Rain = 0
KCL1 162309Z 17008KT 16/01 A2994 RMK A01 T01630005  RH  034%=      5-min Rain = 0
KCL1 162310Z 16009KT 16/01 A2994 RMK A01 T01630005  RH  034%=      5-min Rain = 0
KCL1 162311Z 17008KT 16/01 A2994 RMK A01 T01630005  RH  034%=      5-min Rain = 0
KCL1 162312Z 17007KT 16/01 A2994 RMK A01 T01620006  RH  035%=      5-min Rain = 0
KCL1 162313Z 17008KT 16/01 A2994 RMK A01 T01620006  RH  035%=      5-min Rain = 0
KCL1 162314Z 17006KT 16/01 A2994 RMK A01 T01610006  RH  035%=      5-min Rain = 0
KCL1 162315Z 17007KT 16/01 A2994 RMK A01 T01600006  RH  035%=      5-min Rain = 0
KCL1 162316Z 17008KT 16/01 A2994 RMK A01 T01600006  RH  035%=      5-min Rain = 0
KCL1 162317Z 18008KT 16/01 A2994 RMK A01 T01600005  RH  035%=      5-min Rain = 0
KCL1 162318Z 17007KT 16/01 A2994 RMK A01 T01600006  RH  035%=      5-min Rain = 0
KCL1 162319Z 16007KT 16/01 A2994 RMK A01 T01600006  RH  035%=      5-min Rain = 0
KCL1 162320Z 17008KT 16/01 A2994 RMK A01 T01590005  RH  035%=      5-min Rain = 0
KCL1 162321Z 16006KT 16/01 A2994 RMK A01 T01590005  RH  035%=      5-min Rain = 0
KCL1 162322Z 16007KT 16/01 A2994 RMK A01 T01590005  RH  035%=      5-min Rain = 0
KCL1 162323Z 17008KT 16/01 A2994 RMK A01 T01580005  RH  035%=      5-min Rain = 0
KCL1 162324Z 17007KT 16/01 A2994 RMK A01 T01580006  RH  035%=      5-min Rain = 0
KCL1 162325Z 17006KT 16/01 A2994 RMK A01 T01580006  RH  036%=      5-min Rain = 0
KCL1 162326Z 16007KT 16/01 A2994 RMK A01 T01570006  RH  036%=      5-min Rain = 0
KCL1 162327Z 17007KT 16/01 A2994 RMK A01 T01570006  RH  036%=      5-min Rain = 0
KCL1 162328Z 17009KT 16/01 A2994 RMK A01 T01570006  RH  036%=      5-min Rain = 0
KCL1 162329Z 17008KT 16/01 A2994 RMK A01 T01570005  RH  036%=      5-min Rain = 0
KCL1 162330Z 17008KT 16/01 A2994 RMK A01 T01570005  RH  036%=      5-min Rain = 0
KCL1 162331Z 17006KT 16/01 A2994 RMK A01 T01570005  RH  036%=      5-min Rain = 0
KCL1 162332Z 16007KT 16/01 A2994 RMK A01 T01560005  RH  036%=      5-min Rain = 0
KCL1 162333Z 17009KT 16/01 A2994 RMK A01 T01560005  RH  036%=      5-min Rain = 0
KCL1 162334Z 16008KT 16/01 A2994 RMK A01 T01560005  RH  036%=      5-min Rain = 0
KCL1 162335Z 17007KT 16/01 A2994 RMK A01 T01570005  RH  036%=      5-min Rain = 0
KCL1 162336Z 16009KT 16/01 A2994 RMK A01 T01570005  RH  036%=      5-min Rain = 0
KCL1 162337Z 17008KT 16/01 A2994 RMK A01 T01560005  RH  036%=      5-min Rain = 0
KCL1 162338Z 17008KT 16/01 A2994 RMK A01 T01560005  RH  036%=      5-min Rain = 0
KCL1 162339Z 17008KT 16/01 A2994 RMK A01 T01550005  RH  036%=      5-min Rain = 0
KCL1 162340Z 16008KT 15/01 A2994 RMK A01 T01540005  RH  036%=      5-min Rain = 0
KCL1 162341Z 17010KT 15/01 A2994 RMK A01 T01530005  RH  036%=      5-min Rain = 0
KCL1 162342Z 17009KT 15/01 A2994 RMK A01 T01530005  RH  036%=      5-min Rain = 0
KCL1 162343Z 17009KT 15/01 A2994 RMK A01 T01540005  RH  036%=      5-min Rain = 0
KCL1 162344Z 18009KT 16/01 A2994 RMK A01 T01550006  RH  036%=      5-min Rain = 0
KCL1 162345Z 17008KT 15/01 A2994 RMK A01 T01540006  RH  036%=      5-min Rain = 0
KCL1 162346Z 18009KT 15/01 A2995 RMK A01 T01530006  RH  037%=      5-min Rain = 0
KCL1 162347Z 18010KT 15/01 A2994 RMK A01 T01530005  RH  037%=      5-min Rain = 0
KCL1 162348Z 17011KT 15/01 A2994 RMK A01 T01540006  RH  036%=      5-min Rain = 0
KCL1 162349Z 16008KT 16/01 A2995 RMK A01 T01550006  RH  036%=      5-min Rain = 0
KCL1 162350Z 17009KT 16/01 A2995 RMK A01 T01550006  RH  036%=      5-min Rain = 0
KCL1 162351Z 17012KT 15/01 A2994 RMK A01 T01540006  RH  036%=      5-min Rain = 0
KCL1 162352Z 18010KT 16/01 A2995 RMK A01 T01550005  RH  036%=      5-min Rain = 0
KCL1 162353Z 18009KT 16/01 A2995 RMK A01 T01560005  RH  036%=      5-min Rain = 0
KCL1 162354Z 17010KT 16/01 A2995 RMK A01 T01560005  RH  036%=      5-min Rain = 0
KCL1 162355Z 17008KT 16/01 A2995 RMK A01 T01560006  RH  036%=      5-min Rain = 0
KCL1 162356Z 17010KT 16/01 A2995 RMK A01 T01550005  RH  036%=      5-min Rain = 0
KCL1 162357Z 17009KT 16/01 A2995 RMK A01 T01550005  RH  036%=      5-min Rain = 0
KCL1 162358Z 17011KT 15/01 A2995 RMK A01 T01540005  RH  036%=      5-min Rain = 0
KCL1 162359Z 17012KT 15/01 A2995 RMK A01 T01540005  RH  036%=      5-min Rain = 0
KCL1 170000Z 16011KT 15/01 A2995 RMK A01 T01540005  RH  036%=      5-min Rain = 0
KCL1 170001Z 17011KT 15/01 A2995 RMK A01 T01530005  RH  036%=      5-min Rain = 0
KCL1 170002Z 17010KT 15/01 A2995 RMK A01 T01530005  RH  036%=      5-min Rain = 0
KCL1 170003Z 17011KT 15/01 A2995 RMK A01 T01530005  RH  037%=      5-min Rain = 0
KCL1 170004Z 17009KT 15/01 A2995 RMK A01 T01520005  RH  037%=      5-min Rain = 0
KCL1 170005Z 17010KT 15/01 A2995 RMK A01 T01510005  RH  037%=      5-min Rain = 0
KCL1 170006Z 17011KT 15/01 A2995 RMK A01 T01500005  RH  037%=      5-min Rain = 0
KCL1 170007Z 17012KT 15/01 A2995 RMK A01 T01500006  RH  037%=      5-min Rain = 0
KCL1 170008Z 17011KT 15/01 A2995 RMK A01 T01500005  RH  037%=      5-min Rain = 0
KCL1 170009Z 17011KT 15/01 A2995 RMK A01 T01510005  RH  037%=      5-min Rain = 0
KCL1 170010Z 17009KT 15/01 A2995 RMK A01 T01520005  RH  037%=      5-min Rain = 0
KCL1 170011Z 18011KT 15/01 A2995 RMK A01 T01510005  RH  037%=      5-min Rain = 0
KCL1 170012Z 17009KT 15/01 A2995 RMK A01 T01510005  RH  037%=      5-min Rain = 0
KCL1 170013Z 17011KT 15/01 A2995 RMK A01 T01510005  RH  037%=      5-min Rain = 0
KCL1 170014Z 18009KT 15/01 A2995 RMK A01 T01510005  RH  037%=      5-min Rain = 0
KCL1 170015Z 17008KT 15/01 A2996 RMK A01 T01510006  RH  037%=      5-min Rain = 0
KCL1 170016Z 17010KT 15/01 A2995 RMK A01 T01500005  RH  037%=      5-min Rain = 0
KCL1 170017Z 17010KT 15/01 A2996 RMK A01 T01500005  RH  037%=      5-min Rain = 0
KCL1 170018Z 17008KT 15/01 A2996 RMK A01 T01500005  RH  037%=      5-min Rain = 0
KCL1 170019Z 16008KT 15/01 A2996 RMK A01 T01500006  RH  037%=      5-min Rain = 0
KCL1 170020Z 16008KT 15/01 A2996 RMK A01 T01490005  RH  037%=      5-min Rain = 0
KCL1 170021Z 17010KT 15/01 A2996 RMK A01 T01490005  RH  038%=      5-min Rain = 0
KCL1 170022Z 17009KT 15/01 A2996 RMK A01 T01490006  RH  038%=      5-min Rain = 0
KCL1 170023Z 17007KT 15/01 A2996 RMK A01 T01500006  RH  037%=      5-min Rain = 0
KCL1 170024Z 17008KT 15/01 A2996 RMK A01 T01490006  RH  038%=      5-min Rain = 0
KCL1 170025Z 17009KT 15/01 A2996 RMK A01 T01480006  RH  038%=      5-min Rain = 0
KCL1 170026Z 17008KT 15/01 A2996 RMK A01 T01470006  RH  038%=      5-min Rain = 0
KCL1 170027Z 17008KT 15/01 A2996 RMK A01 T01470006  RH  038%=      5-min Rain = 0
KCL1 170028Z 18010KT 15/01 A2996 RMK A01 T01470007  RH  038%=      5-min Rain = 0
KCL1 170029Z 18010KT 15/01 A2996 RMK A01 T01480007  RH  038%=      5-min Rain = 0
KCL1 170030Z 17008KT 15/01 A2996 RMK A01 T01490007  RH  038%=      5-min Rain = 0
KCL1 170031Z 17008KT 15/01 A2996 RMK A01 T01480007  RH  038%=      5-min Rain = 0
KCL1 170032Z 17009KT 15/01 A2996 RMK A01 T01470007  RH  038%=      5-min Rain = 0
KCL1 170033Z 18010KT 15/01 A2996 RMK A01 T01460007  RH  039%=      5-min Rain = 0
KCL1 170034Z 16009KT 15/01 A2996 RMK A01 T01470008  RH  039%=      5-min Rain = 0
KCL1 170035Z 17009KT 15/01 A2996 RMK A01 T01470008  RH  039%=      5-min Rain = 0
KCL1 170036Z 17010KT 15/01 A2996 RMK A01 T01460008  RH  039%=      5-min Rain = 0
KCL1 170037Z 17008KT 15/01 A2996 RMK A01 T01470008  RH  039%=      5-min Rain = 0
KCL1 170038Z 17010KT 15/01 A2996 RMK A01 T01460008  RH  039%=      5-min Rain = 0
KCL1 170039Z 17011KT 15/01 A2996 RMK A01 T01450009  RH  039%=      5-min Rain = 0
KCL1 170040Z 17010KT 15/01 A2996 RMK A01 T01460009  RH  039%=      5-min Rain = 0
KCL1 170041Z 17010KT 15/01 A2996 RMK A01 T01470009  RH  039%=      5-min Rain = 0
KCL1 170042Z 17009KT 15/01 A2996 RMK A01 T01470010  RH  039%=      5-min Rain = 0
KCL1 170043Z 16010KT 15/01 A2996 RMK A01 T01470010  RH  039%=      5-min Rain = 0
KCL1 170044Z 17008KT 15/01 A2996 RMK A01 T01470010  RH  039%=      5-min Rain = 0
KCL1 170045Z 17010KT 15/01 A2996 RMK A01 T01460010  RH  040%=      5-min Rain = 0
KCL1 170046Z 17010KT 15/01 A2996 RMK A01 T01450010  RH  040%=      5-min Rain = 0
KCL1 170047Z 17007KT 15/01 A2996 RMK A01 T01450010  RH  040%=      5-min Rain = 0
KCL1 170048Z 17009KT 15/01 A2996 RMK A01 T01450011  RH  040%=      5-min Rain = 0
KCL1 170049Z 16009KT 14/01 A2996 RMK A01 T01440011  RH  040%=      5-min Rain = 0
KCL1 170050Z 17009KT 14/01 A2996 RMK A01 T01440011  RH  040%=      5-min Rain = 0
KCL1 170051Z 17010KT 14/01 A2996 RMK A01 T01440011  RH  041%=      5-min Rain = 0
KCL1 170052Z 17010KT 14/01 A2996 RMK A01 T01430011  RH  041%=      5-min Rain = 0
KCL1 170053Z 18009KT 14/01 A2996 RMK A01 T01430012  RH  041%=      5-min Rain = 0
KCL1 170054Z 18011KT 14/01 A2996 RMK A01 T01430012  RH  041%=      5-min Rain = 0
KCL1 170055Z 17009KT 14/01 A2996 RMK A01 T01430012  RH  041%=      5-min Rain = 0
KCL1 170056Z 18008KT 14/01 A2996 RMK A01 T01440012  RH  041%=      5-min Rain = 0
KCL1 170057Z 18007KT 14/01 A2996 RMK A01 T01440012  RH  041%=      5-min Rain = 0
KCL1 170058Z 17007KT 14/01 A2996 RMK A01 T01430012  RH  041%=      5-min Rain = 0
KCL1 170059Z 17008KT 14/01 A2996 RMK A01 T01420012  RH  041%=      5-min Rain = 0
KCL1 170100Z 17010KT 14/01 A2996 RMK A01 T01420012  RH  041%=      5-min Rain = 0
KCL1 170101Z 17010KT 14/01 A2996 RMK A01 T01420012  RH  041%=      5-min Rain = 0
KCL1 170102Z 17009KT 14/01 A2996 RMK A01 T01430012  RH  041%=      5-min Rain = 0
KCL1 170103Z 17011KT 14/01 A2996 RMK A01 T01420012  RH  041%=      5-min Rain = 0
KCL1 170104Z 17011KT 14/01 A2996 RMK A01 T01420012  RH  041%=      5-min Rain = 0
KCL1 170105Z 17012KT 14/01 A2996 RMK A01 T01430012  RH  041%=      5-min Rain = 0
KCL1 170106Z 17009KT 14/01 A2996 RMK A01 T01430012  RH  041%=      5-min Rain = 0
KCL1 170107Z 16008KT 14/01 A2996 RMK A01 T01430013  RH  041%=      5-min Rain = 0
KCL1 170108Z 17011KT 14/01 A2996 RMK A01 T01420013  RH  041%=      5-min Rain = 0
KCL1 170109Z 17008KT 14/01 A2996 RMK A01 T01420013  RH  041%=      5-min Rain = 0
KCL1 170110Z 16008G13KT 14/01 A2996 RMK A01 T01420013  RH  042%=      5-min Rain = 0
KCL1 170111Z 17011KT 14/01 A2996 RMK A01 T01410013  RH  042%=      5-min Rain = 0
KCL1 170112Z 18009KT 14/01 A2996 RMK A01 T01410013  RH  042%=      5-min Rain = 0
KCL1 170113Z 17010KT 14/01 A2996 RMK A01 T01410013  RH  042%=      5-min Rain = 0
KCL1 170114Z 16008KT 14/01 A2996 RMK A01 T01410013  RH  042%=      5-min Rain = 0
KCL1 170115Z 17008KT 14/01 A2996 RMK A01 T01400013  RH  042%=      5-min Rain = 0
KCL1 170116Z 16009KT 14/01 A2996 RMK A01 T01400013  RH  042%=      5-min Rain = 0
KCL1 170117Z 17009KT 14/01 A2996 RMK A01 T01400013  RH  042%=      5-min Rain = 0
KCL1 170118Z 17008KT 14/01 A2996 RMK A01 T01390013  RH  042%=      5-min Rain = 0
KCL1 170119Z 16008KT 14/01 A2996 RMK A01 T01390013  RH  043%=      5-min Rain = 0
KCL1 170120Z 16007KT 14/01 A2996 RMK A01 T01380014  RH  043%=      5-min Rain = 0
KCL1 170121Z 16009KT 14/01 A2996 RMK A01 T01370013  RH  043%=      5-min Rain = 0
KCL1 170122Z 16009KT 14/01 A2996 RMK A01 T01370014  RH  043%=      5-min Rain = 0
KCL1 170123Z 16009KT 14/01 A2996 RMK A01 T01370014  RH  043%=      5-min Rain = 0
KCL1 170124Z 16010KT 14/01 A2996 RMK A01 T01360014  RH  043%=      5-min Rain = 0
KCL1 170125Z 16008KT 14/01 A2996 RMK A01 T01360014  RH  043%=      5-min Rain = 0
KCL1 170126Z 16008KT 14/01 A2996 RMK A01 T01370014  RH  043%=      5-min Rain = 0
KCL1 170127Z 16008KT 14/01 A2996 RMK A01 T01360014  RH  043%=      5-min Rain = 0
KCL1 170128Z 16008KT 14/01 A2996 RMK A01 T01350014  RH  044%=      5-min Rain = 0
KCL1 170129Z 16009KT 14/01 A2996 RMK A01 T01350014  RH  044%=      5-min Rain = 0
KCL1 170130Z 16008KT 13/01 A2996 RMK A01 T01340014  RH  044%=      5-min Rain = 0
KCL1 170131Z 16008KT 13/01 A2996 RMK A01 T01330014  RH  044%=      5-min Rain = 0
KCL1 170132Z 16008KT 13/01 A2996 RMK A01 T01330014  RH  044%=      5-min Rain = 0
KCL1 170133Z 17008KT 13/02 A2996 RMK A01 T01330015  RH  044%=      5-min Rain = 0
KCL1 170134Z 17007KT 13/01 A2996 RMK A01 T01320014  RH  045%=      5-min Rain = 0
KCL1 170135Z 16007KT 13/02 A2996 RMK A01 T01320015  RH  045%=      5-min Rain = 0
KCL1 170136Z 17008KT 13/02 A2996 RMK A01 T01320015  RH  045%=      5-min Rain = 0
KCL1 170137Z 16008KT 13/02 A2996 RMK A01 T01320015  RH  045%=      5-min Rain = 0
KCL1 170138Z 17008KT 13/02 A2996 RMK A01 T01310015  RH  045%=      5-min Rain = 0
KCL1 170139Z 17008KT 13/02 A2996 RMK A01 T01320015  RH  045%=      5-min Rain = 0
KCL1 170140Z 17009KT 13/02 A2996 RMK A01 T01310015  RH  045%=      5-min Rain = 0
KCL1 170141Z 16008KT 13/02 A2996 RMK A01 T01300015  RH  045%=      5-min Rain = 0
KCL1 170142Z 16008KT 13/02 A2996 RMK A01 T01300015  RH  045%=      5-min Rain = 0
KCL1 170143Z 16008KT 13/02 A2996 RMK A01 T01300015  RH  045%=      5-min Rain = 0
KCL1 170144Z 17008KT 13/02 A2996 RMK A01 T01290015  RH  046%=      5-min Rain = 0
KCL1 170145Z 17010KT 13/02 A2996 RMK A01 T01290015  RH  046%=      5-min Rain = 0
KCL1 170146Z 17009KT 13/02 A2996 RMK A01 T01290015  RH  046%=      5-min Rain = 0
KCL1 170147Z 16009KT 13/02 A2996 RMK A01 T01300016  RH  046%=      5-min Rain = 0
KCL1 170148Z 17009KT 13/02 A2996 RMK A01 T01310016  RH  045%=      5-min Rain = 0
KCL1 170149Z 17008KT 13/02 A2996 RMK A01 T01310016  RH  045%=      5-min Rain = 0
KCL1 170150Z 17010KT 13/02 A2996 RMK A01 T01310016  RH  045%=      5-min Rain = 0
KCL1 170151Z 17009KT 13/02 A2996 RMK A01 T01320016  RH  045%=      5-min Rain = 0
KCL1 170152Z 18009KT 13/02 A2996 RMK A01 T01320015  RH  045%=      5-min Rain = 0
KCL1 170153Z 17008KT 13/02 A2996 RMK A01 T01320015  RH  045%=      5-min Rain = 0
KCL1 170154Z 17008KT 13/02 A2996 RMK A01 T01320015  RH  045%=      5-min Rain = 0
KCL1 170155Z 17009KT 13/02 A2996 RMK A01 T01330016  RH  045%=      5-min Rain = 0
KCL1 170156Z 17008KT 13/02 A2996 RMK A01 T01320015  RH  045%=      5-min Rain = 0
KCL1 170157Z 17009KT 13/02 A2996 RMK A01 T01320015  RH  045%=      5-min Rain = 0
KCL1 170158Z 17009KT 13/02 A2996 RMK A01 T01310015  RH  045%=      5-min Rain = 0
KCL1 170159Z 17008KT 13/02 A2996 RMK A01 T01320015  RH  045%=      5-min Rain = 0
KCL1 170200Z 17008KT 13/02 A2996 RMK A01 T01310015  RH  045%=      5-min Rain = 0
KCL1 170201Z 17009KT 13/02 A2996 RMK A01 T01300015  RH  045%=      5-min Rain = 0
KCL1 170202Z 18010KT 13/02 A2996 RMK A01 T01300015  RH  045%=      5-min Rain = 0
KCL1 170203Z 17010KT 13/02 A2996 RMK A01 T01300015  RH  045%=      5-min Rain = 0
KCL1 170204Z 17012KT 13/02 A2996 RMK A01 T01310015  RH  045%=      5-min Rain = 0
KCL1 170205Z 17010KT 13/02 A2996 RMK A01 T01320015  RH  045%=      5-min Rain = 0
KCL1 170206Z 17011KT 13/01 A2996 RMK A01 T01330014  RH  044%=      5-min Rain = 0
KCL1 170207Z 17010KT 13/01 A2996 RMK A01 T01330014  RH  044%=      5-min Rain = 0
KCL1 170208Z 17011KT 13/02 A2996 RMK A01 T01330015  RH  044%=      5-min Rain = 0
KCL1 170209Z 17010KT 13/01 A2996 RMK A01 T01330014  RH  044%=      5-min Rain = 0
KCL1 170210Z 17011KT 13/01 A2996 RMK A01 T01330014  RH  044%=      5-min Rain = 0
KCL1 170211Z 17009KT 13/01 A2996 RMK A01 T01330014  RH  044%=      5-min Rain = 0
KCL1 170212Z 17011KT 13/01 A2996 RMK A01 T01320014  RH  045%=      5-min Rain = 0
KCL1 170213Z 18009KT 13/01 A2996 RMK A01 T01320014  RH  045%=      5-min Rain = 0
KCL1 170214Z 17009KT 13/01 A2996 RMK A01 T01320014  RH  045%=      5-min Rain = 0
KCL1 170215Z 18009KT 13/01 A2996 RMK A01 T01310014  RH  045%=      5-min Rain = 0
KCL1 170216Z 18008KT 13/02 A2996 RMK A01 T01320015  RH  045%=      5-min Rain = 0
KCL1 170217Z 18010KT 13/02 A2996 RMK A01 T01310015  RH  045%=      5-min Rain = 0
KCL1 170218Z 18009KT 13/02 A2996 RMK A01 T01320015  RH  045%=      5-min Rain = 0
KCL1 170219Z 18010KT 13/02 A2996 RMK A01 T01310015  RH  045%=      5-min Rain = 0
KCL1 170220Z 18009KT 13/02 A2996 RMK A01 T01320015  RH  045%=      5-min Rain = 0
KCL1 170221Z 18009KT 13/02 A2996 RMK A01 T01310015  RH  045%=      5-min Rain = 0
KCL1 170222Z 18008KT 13/02 A2996 RMK A01 T01310015  RH  045%=      5-min Rain = 0
KCL1 170223Z 18009KT 13/02 A2996 RMK A01 T01310016  RH  045%=      5-min Rain = 0
KCL1 170224Z 18010KT 13/02 A2996 RMK A01 T01310016  RH  046%=      5-min Rain = 0
KCL1 170225Z 17009KT 13/02 A2996 RMK A01 T01310016  RH  046%=      5-min Rain = 0
KCL1 170226Z 18010KT 13/02 A2996 RMK A01 T01310016  RH  046%=      5-min Rain = 0
KCL1 170227Z 18009KT 13/02 A2996 RMK A01 T01300016  RH  046%=      5-min Rain = 0
KCL1 170228Z 18010KT 13/02 A2996 RMK A01 T01300017  RH  046%=      5-min Rain = 0
KCL1 170229Z 18009KT 13/02 A2996 RMK A01 T01300016  RH  046%=      5-min Rain = 0
KCL1 170230Z 18011KT 13/02 A2996 RMK A01 T01300017  RH  046%=      5-min Rain = 0
KCL1 170231Z 18011KT 13/02 A2996 RMK A01 T01300017  RH  046%=      5-min Rain = 0
KCL1 170232Z 18011KT 13/02 A2996 RMK A01 T01300017  RH  046%=      5-min Rain = 0
KCL1 170233Z 17010KT 13/02 A2996 RMK A01 T01300017  RH  046%=      5-min Rain = 0
KCL1 170234Z 17011KT 13/02 A2996 RMK A01 T01300017  RH  046%=      5-min Rain = 0
KCL1 170235Z 18009KT 13/02 A2996 RMK A01 T01300017  RH  046%=      5-min Rain = 0
KCL1 170236Z 17008KT 13/02 A2996 RMK A01 T01290017  RH  047%=      5-min Rain = 0
KCL1 170237Z 17010KT 13/02 A2996 RMK A01 T01280017  RH  047%=      5-min Rain = 0
KCL1 170238Z 17010KT 13/02 A2996 RMK A01 T01280018  RH  047%=      5-min Rain = 0
KCL1 170239Z 17009KT 13/02 A2996 RMK A01 T01280017  RH  047%=      5-min Rain = 0
KCL1 170240Z 17009KT 13/02 A2996 RMK A01 T01280018  RH  047%=      5-min Rain = 0
KCL1 170241Z 17010KT 13/02 A2996 RMK A01 T01270018  RH  047%=      5-min Rain = 0
KCL1 170242Z 17009KT 13/02 A2996 RMK A01 T01270018  RH  047%=      5-min Rain = 0
KCL1 170243Z 17010KT 13/02 A2996 RMK A01 T01270018  RH  048%=      5-min Rain = 0
KCL1 170244Z 17010KT 13/02 A2996 RMK A01 T01270018  RH  048%=      5-min Rain = 0
KCL1 170245Z 17009KT 13/02 A2996 RMK A01 T01270018  RH  047%=      5-min Rain = 0
KCL1 170246Z 17010KT 13/02 A2996 RMK A01 T01280018  RH  047%=      5-min Rain = 0
KCL1 170247Z 17009KT 13/02 A2996 RMK A01 T01270018  RH  047%=      5-min Rain = 0
KCL1 170248Z 17007KT 13/02 A2996 RMK A01 T01270018  RH  047%=      5-min Rain = 0
KCL1 170249Z 18009KT 13/02 A2996 RMK A01 T01250018  RH  048%=      5-min Rain = 0
KCL1 170250Z 18009KT 13/02 A2996 RMK A01 T01250018  RH  048%=      5-min Rain = 0
KCL1 170251Z 17007KT 13/02 A2996 RMK A01 T01250018  RH  048%=      5-min Rain = 0
KCL1 170252Z 17008KT 13/02 A2996 RMK A01 T01250018  RH  048%=      5-min Rain = 0
KCL1 170253Z 17007KT 13/02 A2996 RMK A01 T01250018  RH  048%=      5-min Rain = 0
KCL1 170254Z 18008KT 13/02 A2997 RMK A01 T01250018  RH  048%=      5-min Rain = 0
KCL1 170255Z 18009KT 13/02 A2997 RMK A01 T01250019  RH  048%=      5-min Rain = 0
KCL1 170256Z 18008KT 13/02 A2997 RMK A01 T01250018  RH  048%=      5-min Rain = 0
KCL1 170257Z 17008KT 13/02 A2997 RMK A01 T01250019  RH  048%=      5-min Rain = 0
KCL1 170258Z 18007KT 13/02 A2997 RMK A01 T01250019  RH  048%=      5-min Rain = 0
KCL1 170259Z 18007KT 13/02 A2997 RMK A01 T01250019  RH  048%=      5-min Rain = 0
KCL1 170300Z 18007KT 12/02 A2997 RMK A01 T01240019  RH  048%=      5-min Rain = 0
KCL1 170301Z 18007KT 12/02 A2997 RMK A01 T01240018  RH  049%=      5-min Rain = 0
KCL1 170302Z 18008KT 12/02 A2997 RMK A01 T01230018  RH  049%=      5-min Rain = 0
KCL1 170303Z 18008KT 12/02 A2997 RMK A01 T01230019  RH  049%=      5-min Rain = 0
KCL1 170304Z 18007KT 12/02 A2997 RMK A01 T01230019  RH  049%=      5-min Rain = 0
KCL1 170305Z 17009KT 12/02 A2997 RMK A01 T01230019  RH  049%=      5-min Rain = 0
KCL1 170306Z 17008KT 12/02 A2997 RMK A01 T01230019  RH  049%=      5-min Rain = 0
KCL1 170307Z 17009KT 12/02 A2997 RMK A01 T01230019  RH  049%=      5-min Rain = 0
KCL1 170308Z 18008KT 12/02 A2997 RMK A01 T01230019  RH  049%=      5-min Rain = 0
KCL1 170309Z 18007KT 12/02 A2997 RMK A01 T01240019  RH  049%=      5-min Rain = 0
KCL1 170310Z 17007KT 12/02 A2997 RMK A01 T01240019  RH  049%=      5-min Rain = 0
KCL1 170311Z 18007KT 12/02 A2997 RMK A01 T01240019  RH  049%=      5-min Rain = 0
KCL1 170312Z 18008KT 12/02 A2997 RMK A01 T01230019  RH  049%=      5-min Rain = 0
KCL1 170313Z 17008KT 12/02 A2997 RMK A01 T01230019  RH  049%=      5-min Rain = 0
KCL1 170314Z 18007KT 12/02 A2997 RMK A01 T01230019  RH  049%=      5-min Rain = 0
KCL1 170315Z 18009KT 12/02 A2997 RMK A01 T01230019  RH  049%=      5-min Rain = 0
KCL1 170316Z 17007KT 12/02 A2997 RMK A01 T01230019  RH  049%=      5-min Rain = 0
KCL1 170317Z 17008KT 12/02 A2997 RMK A01 T01230019  RH  049%=      5-min Rain = 0
KCL1 170318Z 17008KT 12/02 A2997 RMK A01 T01230019  RH  049%=      5-min Rain = 0
KCL1 170319Z 17007KT 12/02 A2997 RMK A01 T01230019  RH  049%=      5-min Rain = 0
KCL1 170320Z 17008KT 12/02 A2997 RMK A01 T01220019  RH  049%=      5-min Rain = 0
KCL1 170321Z 18009KT 12/02 A2997 RMK A01 T01210018  RH  049%=      5-min Rain = 0
KCL1 170322Z 17007KT 12/02 A2997 RMK A01 T01210019  RH  049%=      5-min Rain = 0
KCL1 170323Z 18008KT 12/02 A2997 RMK A01 T01220019  RH  049%=      5-min Rain = 0
KCL1 170324Z 18007KT 12/02 A2997 RMK A01 T01210019  RH  049%=      5-min Rain = 0
KCL1 170325Z 18007KT 12/02 A2997 RMK A01 T01210019  RH  049%=      5-min Rain = 0
KCL1 170326Z 18008KT 12/02 A2997 RMK A01 T01210019  RH  049%=      5-min Rain = 0
KCL1 170327Z 18007KT 12/02 A2997 RMK A01 T01210018  RH  049%=      5-min Rain = 0
KCL1 170328Z 18007KT 12/02 A2997 RMK A01 T01210018  RH  050%=      5-min Rain = 0
KCL1 170329Z 18008KT 12/02 A2997 RMK A01 T01200018  RH  050%=      5-min Rain = 0
KCL1 170330Z 18006KT 12/02 A2997 RMK A01 T01210018  RH  050%=      5-min Rain = 0
KCL1 170331Z 18006KT 12/02 A2997 RMK A01 T01210018  RH  049%=      5-min Rain = 0
KCL1 170332Z 19006KT 12/02 A2997 RMK A01 T01210018  RH  049%=      5-min Rain = 0
KCL1 170333Z 19006KT 12/02 A2998 RMK A01 T01200018  RH  050%=      5-min Rain = 0
KCL1 170334Z 19006KT 12/02 A2998 RMK A01 T01200018  RH  050%=      5-min Rain = 0
KCL1 170335Z 19006KT 12/02 A2997 RMK A01 T01200018  RH  050%=      5-min Rain = 0
KCL1 170336Z 19006KT 12/02 A2997 RMK A01 T01200018  RH  050%=      5-min Rain = 0
KCL1 170337Z 19007KT 12/02 A2997 RMK A01 T01200018  RH  050%=      5-min Rain = 0
KCL1 170338Z 18007KT 12/02 A2997 RMK A01 T01200018  RH  050%=      5-min Rain = 0
KCL1 170339Z 19007KT 12/02 A2997 RMK A01 T01190018  RH  050%=      5-min Rain = 0
KCL1 170340Z 18008KT 12/02 A2997 RMK A01 T01190018  RH  050%=      5-min Rain = 0
KCL1 170341Z 18008KT 12/02 A2997 RMK A01 T01180018  RH  050%=      5-min Rain = 0
KCL1 170342Z 18008KT 12/02 A2997 RMK A01 T01170017  RH  050%=      5-min Rain = 0
KCL1 170343Z 18008KT 12/02 A2997 RMK A01 T01170018  RH  050%=      5-min Rain = 0
KCL1 170344Z 18007KT 12/02 A2997 RMK A01 T01170018  RH  051%=      5-min Rain = 0
KCL1 170345Z 18007KT 12/02 A2997 RMK A01 T01170018  RH  051%=      5-min Rain = 0
KCL1 170346Z 18007KT 12/02 A2997 RMK A01 T01170018  RH  051%=      5-min Rain = 0
KCL1 170347Z 19007KT 12/02 A2997 RMK A01 T01170018  RH  051%=      5-min Rain = 0
KCL1 170348Z 19007KT 12/02 A2997 RMK A01 T01170017  RH  051%=      5-min Rain = 0
KCL1 170349Z 19007KT 12/02 A2997 RMK A01 T01170017  RH  050%=      5-min Rain = 0
KCL1 170350Z 19007KT 12/02 A2997 RMK A01 T01180018  RH  050%=      5-min Rain = 0
KCL1 170351Z 19008KT 12/02 A2997 RMK A01 T01180018  RH  050%=      5-min Rain = 0
KCL1 170352Z 19008KT 12/02 A2997 RMK A01 T01190018  RH  050%=      5-min Rain = 0
KCL1 170353Z 19008KT 12/02 A2997 RMK A01 T01180018  RH  050%=      5-min Rain = 0
KCL1 170354Z 19008KT 12/02 A2997 RMK A01 T01190018  RH  050%=      5-min Rain = 0
KCL1 170355Z 19008KT 12/02 A2997 RMK A01 T01190018  RH  050%=      5-min Rain = 0
KCL1 170356Z 19008KT 12/02 A2997 RMK A01 T01190018  RH  050%=      5-min Rain = 0
KCL1 170357Z 19007KT 12/02 A2997 RMK A01 T01200018  RH  050%=      5-min Rain = 0
KCL1 170358Z 19007KT 12/02 A2997 RMK A01 T01200018  RH  050%=      5-min Rain = 0
KCL1 170359Z 18006KT 12/02 A2997 RMK A01 T01190018  RH  050%=      5-min Rain = 0
KCL1 170400Z 19007KT 12/02 A2997 RMK A01 T01180018  RH  050%=      5-min Rain = 0
KCL1 170401Z 19008KT 12/02 A2997 RMK A01 T01180018  RH  050%=      5-min Rain = 0
KCL1 170402Z 19008KT 12/02 A2997 RMK A01 T01180018  RH  050%=      5-min Rain = 0
KCL1 170403Z 19008KT 12/02 A2997 RMK A01 T01180017  RH  050%=      5-min Rain = 0
KCL1 170404Z 19008KT 12/02 A2997 RMK A01 T01180017  RH  050%=      5-min Rain = 0
KCL1 170405Z 18007KT 12/02 A2997 RMK A01 T01180017  RH  050%=      5-min Rain = 0
KCL1 170406Z 18009KT 12/02 A2997 RMK A01 T01180017  RH  050%=      5-min Rain = 0
KCL1 170407Z 18007KT 12/02 A2997 RMK A01 T01180017  RH  050%=      5-min Rain = 0
KCL1 170408Z 18007KT 12/02 A2997 RMK A01 T01180017  RH  050%=      5-min Rain = 0
KCL1 170409Z 19007KT 12/02 A2997 RMK A01 T01180017  RH  050%=      5-min Rain = 0
KCL1 170410Z 19007KT 12/02 A2997 RMK A01 T01180017  RH  050%=      5-min Rain = 0
KCL1 170411Z 18008KT 12/02 A2997 RMK A01 T01190017  RH  050%=      5-min Rain = 0
KCL1 170412Z 19006KT 12/02 A2997 RMK A01 T01190017  RH  050%=      5-min Rain = 0
KCL1 170413Z 19007KT 12/02 A2997 RMK A01 T01200018  RH  050%=      5-min Rain = 0
KCL1 170414Z 19007KT 12/02 A2997 RMK A01 T01190018  RH  050%=      5-min Rain = 0
KCL1 170415Z 19007KT 12/02 A2997 RMK A01 T01190017  RH  050%=      5-min Rain = 0
KCL1 170416Z 19007KT 12/02 A2997 RMK A01 T01180017  RH  050%=      5-min Rain = 0
KCL1 170417Z 19006KT 12/02 A2997 RMK A01 T01190018  RH  050%=      5-min Rain = 0
KCL1 170418Z 19007KT 12/02 A2997 RMK A01 T01190017  RH  050%=      5-min Rain = 0
KCL1 170419Z 19006KT 12/02 A2997 RMK A01 T01190018  RH  050%=      5-min Rain = 0
KCL1 170420Z 19006KT 12/02 A2997 RMK A01 T01200018  RH  050%=      5-min Rain = 0
KCL1 170421Z 19006KT 12/02 A2997 RMK A01 T01200018  RH  050%=      5-min Rain = 0
KCL1 170422Z 19005KT 12/02 A2997 RMK A01 T01190017  RH  050%=      5-min Rain = 0
KCL1 170423Z 19006KT 12/02 A2997 RMK A01 T01190017  RH  050%=      5-min Rain = 0
KCL1 170424Z 19005KT 12/02 A2997 RMK A01 T01190017  RH  050%=      5-min Rain = 0
KCL1 170425Z 19005KT 12/02 A2997 RMK A01 T01190017  RH  050%=      5-min Rain = 0
KCL1 170426Z 19006KT 12/02 A2997 RMK A01 T01190017  RH  050%=      5-min Rain = 0
KCL1 170427Z 19005KT 12/02 A2997 RMK A01 T01200017  RH  050%=      5-min Rain = 0
KCL1 170428Z 19006KT 12/02 A2997 RMK A01 T01200017  RH  049%=      5-min Rain = 0
KCL1 170429Z 19006KT 12/02 A2997 RMK A01 T01200018  RH  050%=      5-min Rain = 0
KCL1 170430Z 19006KT 12/02 A2997 RMK A01 T01200017  RH  050%=      5-min Rain = 0
KCL1 170431Z 19006KT 12/02 A2997 RMK A01 T01200017  RH  049%=      5-min Rain = 0
KCL1 170432Z 18006KT 12/02 A2997 RMK A01 T01200018  RH  049%=      5-min Rain = 0
KCL1 170433Z 19006KT 12/02 A2997 RMK A01 T01200018  RH  049%=      5-min Rain = 0
KCL1 170434Z 19006KT 12/02 A2997 RMK A01 T01200018  RH  049%=      5-min Rain = 0
KCL1 170435Z 19006KT 12/02 A2997 RMK A01 T01200018  RH  049%=      5-min Rain = 0
KCL1 170436Z 19005KT 12/02 A2997 RMK A01 T01200017  RH  049%=      5-min Rain = 0
KCL1 170437Z 19006KT 12/02 A2997 RMK A01 T01200018  RH  050%=      5-min Rain = 0
KCL1 170438Z 19006KT 12/02 A2997 RMK A01 T01190017  RH  050%=      5-min Rain = 0
KCL1 170439Z 19006KT 12/02 A2997 RMK A01 T01190017  RH  050%=      5-min Rain = 0
KCL1 170440Z 19006KT 12/02 A2997 RMK A01 T01190017  RH  049%=      5-min Rain = 0
KCL1 170441Z 18006KT 12/02 A2997 RMK A01 T01200017  RH  049%=      5-min Rain = 0
KCL1 170442Z 18006KT 12/02 A2997 RMK A01 T01200017  RH  049%=      5-min Rain = 0
KCL1 170443Z 18006KT 12/02 A2997 RMK A01 T01210017  RH  049%=      5-min Rain = 0
KCL1 170444Z 18006KT 12/02 A2997 RMK A01 T01200017  RH  049%=      5-min Rain = 0
KCL1 170445Z 18007KT 12/02 A2997 RMK A01 T01200017  RH  049%=      5-min Rain = 0
KCL1 170446Z 18006KT 12/02 A2997 RMK A01 T01200017  RH  050%=      5-min Rain = 0
KCL1 170447Z 18007KT 12/02 A2997 RMK A01 T01190017  RH  050%=      5-min Rain = 0
KCL1 170448Z 18007KT 12/02 A2997 RMK A01 T01190018  RH  050%=      5-min Rain = 0
KCL1 170449Z 18007KT 12/02 A2997 RMK A01 T01190017  RH  050%=      5-min Rain = 0
KCL1 170450Z 18007KT 12/02 A2997 RMK A01 T01180017  RH  050%=      5-min Rain = 0
KCL1 170451Z 18007KT 12/02 A2997 RMK A01 T01190017  RH  050%=      5-min Rain = 0
KCL1 170452Z 18007KT 12/02 A2997 RMK A01 T01200018  RH  050%=      5-min Rain = 0
KCL1 170453Z 18007KT 12/02 A2997 RMK A01 T01200018  RH  050%=      5-min Rain = 0
KCL1 170454Z 18007KT 12/02 A2997 RMK A01 T01200018  RH  050%=      5-min Rain = 0
KCL1 170455Z 18007KT 12/02 A2997 RMK A01 T01190018  RH  050%=      5-min Rain = 0
KCL1 170456Z 18008KT 12/02 A2997 RMK A01 T01190018  RH  050%=      5-min Rain = 0
KCL1 170457Z 18007KT 12/02 A2997 RMK A01 T01180017  RH  050%=      5-min Rain = 0
KCL1 170458Z 18008KT 12/02 A2997 RMK A01 T01190018  RH  050%=      5-min Rain = 0
KCL1 170459Z 19008KT 12/02 A2997 RMK A01 T01190018  RH  050%=      5-min Rain = 0
KCL1 170500Z 19008KT 12/02 A2997 RMK A01 T01190018  RH  050%=      5-min Rain = 0
KCL1 170501Z 19007KT 12/02 A2997 RMK A01 T01190017  RH  050%=      5-min Rain = 0
KCL1 170502Z 19007KT 12/02 A2997 RMK A01 T01190017  RH  050%=      5-min Rain = 0
KCL1 170503Z 19007KT 12/02 A2997 RMK A01 T01190017  RH  050%=      5-min Rain = 0
KCL1 170504Z 19007KT 12/02 A2997 RMK A01 T01200017  RH  049%=      5-min Rain = 0
KCL1 170505Z 19007KT 12/02 A2997 RMK A01 T01210017  RH  049%=      5-min Rain = 0
KCL1 170506Z 19006KT 12/02 A2997 RMK A01 T01210017  RH  049%=      5-min Rain = 0
KCL1 170507Z 20006KT 12/02 A2998 RMK A01 T01210017  RH  049%=      5-min Rain = 0
KCL1 170508Z 20006KT 12/02 A2998 RMK A01 T01210017  RH  049%=      5-min Rain = 0
KCL1 170509Z 20005KT 12/02 A2998 RMK A01 T01210016  RH  049%=      5-min Rain = 0
KCL1 170510Z 19006KT 12/02 A2998 RMK A01 T01220016  RH  048%=      5-min Rain = 0
KCL1 170511Z 21005KT 12/02 A2998 RMK A01 T01220016  RH  048%=      5-min Rain = 0
KCL1 170512Z 21003KT 12/02 A2998 RMK A01 T01230016  RH  048%=      5-min Rain = 0
KCL1 170513Z 21004KT 12/02 A2998 RMK A01 T01230016  RH  048%=      5-min Rain = 0
KCL1 170514Z 21003KT 12/02 A2998 RMK A01 T01230015  RH  048%=      5-min Rain = 0
KCL1 170515Z 21003KT 12/02 A2998 RMK A01 T01230015  RH  048%=      5-min Rain = 0
KCL1 170516Z 23004KT 12/02 A2998 RMK A01 T01230015  RH  048%=      5-min Rain = 0
KCL1 170517Z 23003KT 12/02 A2998 RMK A01 T01220015  RH  048%=      5-min Rain = 0
KCL1 170518Z 24004KT 12/02 A2998 RMK A01 T01220016  RH  048%=      5-min Rain = 0
KCL1 170519Z 23005KT 12/02 A2998 RMK A01 T01200016  RH  049%=      5-min Rain = 0
KCL1 170520Z 22005KT 12/02 A2998 RMK A01 T01190016  RH  049%=      5-min Rain = 0
KCL1 170521Z 22006KT 12/02 A2998 RMK A01 T01170016  RH  050%=      5-min Rain = 0
KCL1 170522Z 22005KT 12/02 A2998 RMK A01 T01160016  RH  050%=      5-min Rain = 0
KCL1 170523Z 22006KT 12/02 A2998 RMK A01 T01150016  RH  051%=      5-min Rain = 0
KCL1 170524Z 24005KT 12/02 A2998 RMK A01 T01150017  RH  051%=      5-min Rain = 0
KCL1 170525Z 26004KT 12/02 A2998 RMK A01 T01150017  RH  051%=      5-min Rain = 0
KCL1 170526Z 26004KT 12/02 A2998 RMK A01 T01150017  RH  051%=      5-min Rain = 0
KCL1 170527Z 25004KT 11/02 A2998 RMK A01 T01140018  RH  051%=      5-min Rain = 0
KCL1 170528Z 25004KT 11/02 A2998 RMK A01 T01130017  RH  052%=      5-min Rain = 0
KCL1 170529Z 25004KT 11/02 A2998 RMK A01 T01130018  RH  052%=      5-min Rain = 0
KCL1 170530Z 25004KT 11/02 A2998 RMK A01 T01120018  RH  052%=      5-min Rain = 0
KCL1 170531Z 25005KT 11/02 A2998 RMK A01 T01120018  RH  052%=      5-min Rain = 0
KCL1 170532Z 25004KT 11/02 A2998 RMK A01 T01110017  RH  052%=      5-min Rain = 0
KCL1 170533Z 25004KT 11/02 A2998 RMK A01 T01110018  RH  053%=      5-min Rain = 0
KCL1 170534Z 25003KT 11/02 A2998 RMK A01 T01110018  RH  053%=      5-min Rain = 0
KCL1 170535Z 26004KT 11/02 A2998 RMK A01 T01110018  RH  053%=      5-min Rain = 0
KCL1 170536Z 26004KT 11/02 A2998 RMK A01 T01110018  RH  053%=      5-min Rain = 0
KCL1 170537Z 26003KT 11/02 A2998 RMK A01 T01120018  RH  052%=      5-min Rain = 0
KCL1 170538Z 27002KT 11/02 A2998 RMK A01 T01120017  RH  052%=      5-min Rain = 0
KCL1 170539Z 28003KT 11/02 A2998 RMK A01 T01120018  RH  052%=      5-min Rain = 0
KCL1 170540Z 28003KT 11/02 A2998 RMK A01 T01120016  RH  052%=      5-min Rain = 0
KCL1 170541Z 28004KT 11/02 A2998 RMK A01 T01120016  RH  051%=      5-min Rain = 0
KCL1 170542Z 28004KT 11/02 A2998 RMK A01 T01130015  RH  051%=      5-min Rain = 0
KCL1 170543Z 28004KT 11/01 A2999 RMK A01 T01130014  RH  051%=      5-min Rain = 0
KCL1 170544Z 28004KT 11/01 A2999 RMK A01 T01130014  RH  050%=      5-min Rain = 0
KCL1 170545Z 28004KT 11/01 A2999 RMK A01 T01130013  RH  050%=      5-min Rain = 0
KCL1 170546Z 28004KT 11/01 A2999 RMK A01 T01130012  RH  050%=      5-min Rain = 0
KCL1 170547Z 28003KT 11/01 A2999 RMK A01 T01130012  RH  050%=      5-min Rain = 0
KCL1 170548Z 28004KT 11/01 A2999 RMK A01 T01120012  RH  050%=      5-min Rain = 0
KCL1 170549Z 28005KT 11/01 A2999 RMK A01 T01120012  RH  050%=      5-min Rain = 0
KCL1 170550Z 28006KT 11/01 A2999 RMK A01 T01120012  RH  050%=      5-min Rain = 0
KCL1 170551Z 28005KT 11/01 A2999 RMK A01 T01120011  RH  050%=      5-min Rain = 0
KCL1 170552Z 28005KT 11/01 A2999 RMK A01 T01120011  RH  050%=      5-min Rain = 0
KCL1 170553Z 27004KT 11/01 A2999 RMK A01 T01130011  RH  050%=      5-min Rain = 0
KCL1 170554Z 29004KT 11/01 A2999 RMK A01 T01120012  RH  050%=      5-min Rain = 0
KCL1 170555Z 30003KT 11/01 A2999 RMK A01 T01110012  RH  051%=      5-min Rain = 0
KCL1 170556Z 31004KT 11/01 A2999 RMK A01 T01080012  RH  051%=      5-min Rain = 0
KCL1 170557Z 30004KT 11/01 A2999 RMK A01 T01060012  RH  052%=      5-min Rain = 0
KCL1 170558Z 30004KT 10/01 A2999 RMK A01 T01030012  RH  053%=      5-min Rain = 0
KCL1 170559Z 30004KT 10/01 A2999 RMK A01 T01010012  RH  054%=      5-min Rain = 0

Page generated in 0.0784 seconds.